Time,TemperatureF,DewpointF,PressureIn,WindDirection,WindDirectionDegrees,WindSpeedMPH,WindSpeedGustMPH,Humidity,HourlyPrecipIn,Conditions,Clouds,dailyrainin,SoftwareType,DateUTC
2013-11-06 00:00:00,59.4,59.4,29.12,SSW,204,12.8,15.0,100,0.00,,-RA,0.20,VWS V14.01,2013-11-06 06:00:00,
2013-11-06 00:01:00,59.4,59.4,29.12,South,173,13.2,17.0,100,0.00,,-RA,0.20,VWS V14.01,2013-11-06 06:01:00,
2013-11-06 00:02:00,59.4,59.4,29.12,SW,230,11.0,13.2,100,0.00,,-RA,0.00,VWS V14.01,2013-11-06 06:02:00,
2013-11-06 00:04:00,59.4,59.4,29.12,SSW,198,13.2,15.4,100,0.00,,-RA,0.00,VWS V14.01,2013-11-06 06:04:00,
2013-11-06 00:05:00,59.4,59.4,29.12,South,185,15.4,15.4,100,0.00,,-RA,0.00,VWS V14.01,2013-11-06 06:05:00,
2013-11-06 00:06:00,59.4,59.4,29.12,South,171,13.2,17.0,100,0.00,,-RA,0.00,VWS V14.01,2013-11-06 06:06:00,
2013-11-06 00:08:00,59.4,59.4,29.12,South,182,17.4,19.7,100,0.00,,-RA,0.00,VWS V14.01,2013-11-06 06:08:00,
2013-11-06 00:10:00,59.4,58.8,29.15,South,186,12.8,13.2,98,0.00,,-RA,0.00,VWS V14.01,2013-11-06 06:10:00,
2013-11-06 00:11:00,59.4,58.8,29.15,SSE,163,13.2,15.4,98,0.00,,-RA,0.00,VWS V14.01,2013-11-06 06:11:00,
2013-11-06 00:13:00,59.4,59.4,29.15,South,179,16.8,16.8,100,0.00,,-RA,0.00,VWS V14.01,2013-11-06 06:13:00,
2013-11-06 00:15:00,59.4,59.4,29.15,South,172,12.3,12.3,100,0.00,,-RA,0.00,VWS V14.01,2013-11-06 06:15:00,
2013-11-06 00:16:00,59.4,59.4,29.15,SSE,147,12.8,15.4,100,0.00,,-RA,0.00,VWS V14.01,2013-11-06 06:16:00,
2013-11-06 00:17:00,59.4,59.4,29.15,SSE,164,10.5,12.8,100,0.00,,-RA,0.00,VWS V14.01,2013-11-06 06:17:00,
2013-11-06 00:18:00,59.4,59.4,29.15,South,191,8.3,8.3,100,0.00,,-RA,0.00,VWS V14.01,2013-11-06 06:18:00,
2013-11-06 00:21:00,59.4,59.4,29.15,South,181,15.0,15.4,100,0.00,,-RA,0.00,VWS V14.01,2013-11-06 06:21:00,
2013-11-06 00:22:00,59.4,59.4,29.15,SSE,154,10.5,16.8,100,0.00,,-RA,0.00,VWS V14.01,2013-11-06 06:22:00,
2013-11-06 00:24:00,59.4,59.4,29.15,SSW,192,13.2,16.3,100,0.04,,-RA,0.04,VWS V14.01,2013-11-06 06:24:00,
2013-11-06 00:27:00,59.4,59.4,29.15,South,190,15.4,16.8,100,0.04,,-RA,0.04,VWS V14.01,2013-11-06 06:27:00,
2013-11-06 00:28:00,59.4,59.4,29.15,South,182,14.5,16.8,100,0.04,,-RA,0.04,VWS V14.01,2013-11-06 06:28:00,
2013-11-06 00:29:00,59.4,59.4,29.15,SSE,167,14.1,14.1,100,0.04,,-RA,0.04,VWS V14.01,2013-11-06 06:29:00,
2013-11-06 00:32:00,59.4,59.4,29.15,SSW,198,11.0,11.0,100,0.04,,OVC013,0.04,VWS V14.01,2013-11-06 06:32:00,
2013-11-06 00:33:00,59.4,59.4,29.15,SSW,197,11.9,15.0,100,0.04,,OVC013,0.04,VWS V14.01,2013-11-06 06:33:00,
2013-11-06 00:34:00,59.4,59.4,29.15,SSE,159,13.2,16.3,100,0.04,,OVC013,0.04,VWS V14.01,2013-11-06 06:34:00,
2013-11-06 00:35:00,59.4,59.4,29.15,South,176,13.2,16.3,100,0.04,,OVC013,0.04,VWS V14.01,2013-11-06 06:35:00,
2013-11-06 00:37:00,59.4,59.4,29.15,South,187,11.0,13.2,100,0.04,,OVC013,0.04,VWS V14.01,2013-11-06 06:37:00,
2013-11-06 00:38:00,59.4,59.4,29.15,South,177,10.5,10.5,100,0.04,,OVC013,0.04,VWS V14.01,2013-11-06 06:38:00,
2013-11-06 00:39:00,59.4,59.4,29.12,SSW,198,11.0,12.8,100,0.04,,OVC013,0.04,VWS V14.01,2013-11-06 06:39:00,
2013-11-06 00:40:00,59.4,59.4,29.12,SSE,154,8.7,12.3,100,0.04,,OVC013,0.04,VWS V14.01,2013-11-06 06:40:00,
2013-11-06 00:42:00,59.4,59.4,29.12,South,190,13.2,16.3,100,0.04,,OVC013,0.04,VWS V14.01,2013-11-06 06:42:00,
2013-11-06 00:44:00,59.5,59.5,29.12,South,179,12.8,15.4,100,0.04,,OVC013,0.04,VWS V14.01,2013-11-06 06:44:00,
2013-11-06 00:45:00,59.5,59.5,29.12,South,177,13.6,14.5,100,0.04,,OVC013,0.04,VWS V14.01,2013-11-06 06:45:00,
2013-11-06 00:48:00,59.4,59.4,29.12,South,180,15.0,15.4,100,0.04,,OVC013,0.04,VWS V14.01,2013-11-06 06:48:00,
2013-11-06 00:49:00,59.4,59.4,29.12,South,189,10.5,10.5,100,0.04,,OVC013,0.04,VWS V14.01,2013-11-06 06:49:00,
2013-11-06 00:51:00,59.4,59.4,29.12,South,177,13.2,13.2,100,0.04,,OVC013,0.04,VWS V14.01,2013-11-06 06:51:00,
2013-11-06 00:53:00,59.5,59.5,29.12,South,173,12.8,18.3,100,0.04,,OVC013,0.04,VWS V14.01,2013-11-06 06:53:00,
2013-11-06 00:54:00,59.5,59.5,29.12,South,176,17.4,17.4,100,0.04,,OVC013,0.04,VWS V14.01,2013-11-06 06:54:00,
2013-11-06 00:55:00,59.5,59.5,29.12,SSE,164,13.2,17.4,100,0.04,,OVC013,0.04,VWS V14.01,2013-11-06 06:55:00,
2013-11-06 00:56:00,59.5,59.5,29.12,SSW,204,11.9,11.9,100,0.04,,OVC013,0.04,VWS V14.01,2013-11-06 06:56:00,
2013-11-06 00:57:00,59.5,59.5,29.12,SSE,160,14.5,14.5,100,0.04,,OVC013,0.04,VWS V14.01,2013-11-06 06:57:00,
2013-11-06 00:58:00,59.5,59.5,29.12,South,173,10.5,15.4,100,0.04,,OVC013,0.04,VWS V14.01,2013-11-06 06:58:00,
2013-11-06 00:59:00,59.5,59.5,29.12,SSW,209,12.8,12.8,100,0.04,,OVC013,0.04,VWS V14.01,2013-11-06 06:59:00,
2013-11-06 01:00:00,59.5,59.5,29.12,South,174,12.8,12.8,100,0.04,,OVC013,0.04,VWS V14.01,2013-11-06 07:00:00,
2013-11-06 01:01:00,59.5,59.5,29.12,SW,218,14.5,16.8,100,0.04,,OVC013,0.04,VWS V14.01,2013-11-06 07:01:00,
2013-11-06 01:02:00,59.5,59.5,29.12,South,189,12.3,16.8,100,0.04,,-RA,0.04,VWS V14.01,2013-11-06 07:02:00,
2013-11-06 01:04:00,59.5,59.5,29.12,SSE,167,10.5,15.4,100,0.04,,-RA,0.04,VWS V14.01,2013-11-06 07:04:00,
2013-11-06 01:05:00,59.5,59.5,29.12,SSW,193,8.7,10.5,100,0.04,,-RA,0.04,VWS V14.01,2013-11-06 07:05:00,
2013-11-06 01:06:00,59.5,59.5,29.12,South,182,10.5,11.0,100,0.04,,-RA,0.04,VWS V14.01,2013-11-06 07:06:00,
2013-11-06 01:07:00,59.5,59.5,29.12,SSW,197,13.2,17.0,100,0.04,,-RA,0.04,VWS V14.01,2013-11-06 07:07:00,
2013-11-06 01:09:00,59.7,59.7,29.12,SSW,205,13.2,17.4,100,0.04,,-RA,0.04,VWS V14.01,2013-11-06 07:09:00,
2013-11-06 01:10:00,59.7,59.7,29.12,SSW,208,15.0,15.0,100,0.04,,-RA,0.04,VWS V14.01,2013-11-06 07:10:00,
2013-11-06 01:11:00,59.7,59.7,29.12,South,174,11.0,12.8,100,0.04,,-RA,0.04,VWS V14.01,2013-11-06 07:11:00,
2013-11-06 01:12:00,59.7,59.7,29.12,South,182,12.8,12.8,100,0.04,,-RA,0.04,VWS V14.01,2013-11-06 07:12:00,
2013-11-06 01:13:00,59.7,59.7,29.12,South,169,12.8,15.4,100,0.04,,-RA,0.04,VWS V14.01,2013-11-06 07:13:00,
2013-11-06 01:15:00,59.7,59.7,29.12,ESE,103,12.8,12.8,100,0.04,,-RA,0.04,VWS V14.01,2013-11-06 07:15:00,
2013-11-06 01:17:00,59.7,59.7,29.12,South,173,10.1,12.8,100,0.04,,-RA,0.04,VWS V14.01,2013-11-06 07:17:00,
2013-11-06 01:18:00,59.7,59.7,29.12,SSW,211,4.9,12.8,100,0.04,,-RA,0.04,VWS V14.01,2013-11-06 07:18:00,
2013-11-06 01:19:00,59.7,59.7,29.12,South,174,11.0,11.0,100,0.04,,-RA,0.04,VWS V14.01,2013-11-06 07:19:00,
2013-11-06 01:21:00,59.7,59.7,29.12,South,170,12.8,12.8,100,0.04,,-RA,0.04,VWS V14.01,2013-11-06 07:21:00,
2013-11-06 01:22:00,59.7,59.7,29.12,South,186,12.8,13.6,100,0.04,,-RA,0.04,VWS V14.01,2013-11-06 07:22:00,
2013-11-06 01:23:00,59.7,59.7,29.12,SSW,195,17.0,17.0,100,0.04,,-RA,0.04,VWS V14.01,2013-11-06 07:23:00,
2013-11-06 01:24:00,59.9,59.9,29.12,South,186,14.1,17.0,100,0.04,,-RA,0.04,VWS V14.01,2013-11-06 07:24:00,
2013-11-06 01:25:00,59.9,59.9,29.12,South,171,10.5,12.3,100,0.00,,-RA,0.04,VWS V14.01,2013-11-06 07:25:00,
2013-11-06 01:26:00,59.9,59.9,29.12,South,171,10.5,12.3,100,0.00,,-RA,0.04,VWS V14.01,2013-11-06 07:26:00,
2013-11-06 01:28:00,59.9,59.9,29.12,South,186,12.3,12.8,100,0.00,,-RA,0.04,VWS V14.01,2013-11-06 07:28:00,
2013-11-06 01:30:00,59.9,59.9,29.12,South,172,10.1,15.0,100,0.00,,-RA,0.04,VWS V14.01,2013-11-06 07:30:00,
2013-11-06 01:31:00,59.9,59.9,29.12,South,180,12.8,12.8,100,0.00,,-RA,0.04,VWS V14.01,2013-11-06 07:31:00,
2013-11-06 01:32:00,59.9,59.9,29.12,South,175,10.5,12.8,100,0.00,,-RA,0.04,VWS V14.01,2013-11-06 07:32:00,
2013-11-06 01:34:00,59.9,59.9,29.12,South,183,12.8,12.8,100,0.00,,-RA,0.04,VWS V14.01,2013-11-06 07:34:00,
2013-11-06 01:35:00,59.9,59.9,29.12,South,170,13.2,13.2,100,0.00,,-RA,0.04,VWS V14.01,2013-11-06 07:35:00,
2013-11-06 01:37:00,59.9,59.9,29.12,SSE,155,12.8,12.8,100,0.00,,-RA,0.04,VWS V14.01,2013-11-06 07:37:00,
2013-11-06 01:39:00,59.9,59.9,29.09,South,176,11.0,13.2,100,0.00,,-RA,0.04,VWS V14.01,2013-11-06 07:39:00,
2013-11-06 01:40:00,59.9,59.9,29.09,SSW,194,15.4,15.4,100,0.00,,-RA,0.04,VWS V14.01,2013-11-06 07:40:00,
2013-11-06 01:41:00,59.9,59.9,29.09,South,178,11.0,15.4,100,0.00,,-RA,0.04,VWS V14.01,2013-11-06 07:41:00,
2013-11-06 01:42:00,59.9,59.9,29.09,South,173,15.4,15.4,100,0.00,,-RA,0.04,VWS V14.01,2013-11-06 07:42:00,
2013-11-06 01:44:00,60.1,60.1,29.09,South,188,16.8,16.8,100,0.00,,-RA,0.04,VWS V14.01,2013-11-06 07:44:00,
2013-11-06 01:45:00,60.1,60.1,29.09,SSE,161,12.8,12.8,100,0.00,,-RA,0.04,VWS V14.01,2013-11-06 07:45:00,
2013-11-06 01:46:00,60.1,60.1,29.09,South,182,13.2,13.2,100,0.00,,-RA,0.04,VWS V14.01,2013-11-06 07:46:00,
2013-11-06 01:47:00,60.1,60.1,29.09,South,191,13.2,13.2,100,0.00,,-RA,0.04,VWS V14.01,2013-11-06 07:47:00,
2013-11-06 01:48:00,60.1,60.1,29.09,SSW,194,8.7,10.5,100,0.00,,-RA,0.04,VWS V14.01,2013-11-06 07:48:00,
2013-11-06 01:49:00,60.1,60.1,29.09,SSW,206,10.5,14.5,100,0.00,,-RA,0.04,VWS V14.01,2013-11-06 07:49:00,
2013-11-06 01:51:00,60.1,60.1,29.09,SSW,195,15.0,15.0,100,0.00,,-RA,0.04,VWS V14.01,2013-11-06 07:51:00,
2013-11-06 01:53:00,60.1,60.1,29.09,South,174,9.2,9.6,100,0.00,,-RA,0.04,VWS V14.01,2013-11-06 07:53:00,
2013-11-06 01:54:00,60.1,60.1,29.09,South,185,12.8,13.2,100,0.00,,-RA,0.04,VWS V14.01,2013-11-06 07:54:00,
2013-11-06 01:55:00,60.1,60.1,29.09,SSE,157,11.0,12.3,100,0.00,,-RA,0.04,VWS V14.01,2013-11-06 07:55:00,
2013-11-06 01:56:00,60.1,60.1,29.09,South,190,10.5,12.8,100,0.00,,-RA,0.04,VWS V14.01,2013-11-06 07:56:00,
2013-11-06 01:57:00,60.1,60.1,29.09,South,185,12.3,13.2,100,0.00,,-RA,0.04,VWS V14.01,2013-11-06 07:57:00,
2013-11-06 01:59:00,60.1,60.1,29.09,SW,216,12.8,12.8,100,0.00,,-RA,0.04,VWS V14.01,2013-11-06 07:59:00,
2013-11-06 02:00:00,60.1,60.1,29.09,South,173,11.4,12.8,100,0.00,,-RA,0.04,VWS V14.01,2013-11-06 08:00:00,
2013-11-06 02:01:00,60.1,60.1,29.09,South,173,16.3,16.3,100,0.00,,-RA,0.04,VWS V14.01,2013-11-06 08:01:00,
2013-11-06 02:03:00,60.3,60.3,29.09,South,179,6.3,12.3,100,0.00,,OVC008,0.04,VWS V14.01,2013-11-06 08:03:00,
2013-11-06 02:04:00,60.3,60.3,29.09,South,181,8.7,12.3,100,0.00,,OVC008,0.04,VWS V14.01,2013-11-06 08:04:00,
2013-11-06 02:05:00,60.1,60.1,29.09,South,190,10.5,10.5,100,0.00,,OVC008,0.04,VWS V14.01,2013-11-06 08:05:00,
2013-11-06 02:07:00,60.1,60.1,29.09,South,179,8.7,11.0,100,0.00,,OVC008,0.04,VWS V14.01,2013-11-06 08:07:00,
2013-11-06 02:08:00,60.3,60.3,29.09,South,175,8.1,12.8,100,0.00,,OVC008,0.04,VWS V14.01,2013-11-06 08:08:00,
2013-11-06 02:10:00,60.1,60.1,29.09,South,188,8.7,10.1,100,0.00,,OVC008,0.04,VWS V14.01,2013-11-06 08:10:00,
2013-11-06 02:11:00,60.1,60.1,29.09,SSE,162,8.7,8.7,100,0.00,,OVC008,0.04,VWS V14.01,2013-11-06 08:11:00,
2013-11-06 02:12:00,60.1,60.1,29.09,SSW,207,12.8,12.8,100,0.00,,OVC008,0.04,VWS V14.01,2013-11-06 08:12:00,
2013-11-06 02:13:00,60.1,60.1,29.09,South,188,8.1,8.1,100,0.00,,OVC008,0.04,VWS V14.01,2013-11-06 08:13:00,
2013-11-06 02:15:00,60.1,60.1,29.09,SSW,210,12.8,12.8,100,0.00,,OVC008,0.04,VWS V14.01,2013-11-06 08:15:00,
2013-11-06 02:16:00,60.3,60.3,29.09,South,188,10.5,12.8,100,0.00,,OVC008,0.04,VWS V14.01,2013-11-06 08:16:00,
2013-11-06 02:18:00,60.3,60.3,29.09,SSW,200,9.6,9.6,100,0.00,,OVC008,0.04,VWS V14.01,2013-11-06 08:18:00,
2013-11-06 02:20:00,60.3,60.3,29.09,South,175,10.5,10.5,100,0.00,,OVC008,0.04,VWS V14.01,2013-11-06 08:20:00,
2013-11-06 02:21:00,60.1,60.1,29.09,South,189,11.0,11.0,100,0.00,,OVC008,0.04,VWS V14.01,2013-11-06 08:21:00,
2013-11-06 02:22:00,60.1,60.1,29.09,SSE,165,10.1,12.8,100,0.00,,OVC008,0.04,VWS V14.01,2013-11-06 08:22:00,
2013-11-06 02:23:00,60.1,60.1,29.09,South,180,11.0,11.0,100,0.04,,OVC008,0.08,VWS V14.01,2013-11-06 08:23:00,
2013-11-06 02:24:00,60.1,60.1,29.09,South,181,7.6,8.3,100,0.04,,OVC008,0.08,VWS V14.01,2013-11-06 08:24:00,
2013-11-06 02:26:00,60.1,60.1,29.09,South,181,8.3,8.3,100,0.04,,OVC008,0.08,VWS V14.01,2013-11-06 08:26:00,
2013-11-06 02:27:00,60.1,60.1,29.09,SW,215,9.6,9.6,100,0.04,,OVC008,0.08,VWS V14.01,2013-11-06 08:27:00,
2013-11-06 02:29:00,60.1,60.1,29.09,SSW,195,8.7,10.5,100,0.08,,OVC008,0.12,VWS V14.01,2013-11-06 08:29:00,
2013-11-06 02:30:00,60.1,60.1,29.09,SSW,213,8.1,8.7,100,0.12,,OVC008,0.16,VWS V14.01,2013-11-06 08:30:00,
2013-11-06 02:32:00,60.1,60.1,29.09,SSW,199,11.0,11.0,100,0.16,,OVC008,0.20,VWS V14.01,2013-11-06 08:32:00,
2013-11-06 02:34:00,60.1,60.1,29.09,SSW,212,10.1,10.1,100,0.24,,OVC008,0.28,VWS V14.01,2013-11-06 08:34:00,
2013-11-06 02:35:00,60.1,60.1,29.09,SW,220,7.6,10.1,100,0.24,,OVC008,0.28,VWS V14.01,2013-11-06 08:35:00,
2013-11-06 02:37:00,60.1,60.1,29.09,WSW,238,5.8,8.7,100,0.24,,OVC008,0.28,VWS V14.01,2013-11-06 08:37:00,
2013-11-06 02:38:00,59.9,59.9,29.09,WSW,239,5.4,6.3,100,0.24,,OVC008,0.28,VWS V14.01,2013-11-06 08:38:00,
2013-11-06 02:40:00,59.9,59.9,29.09,SW,235,5.4,5.8,100,0.28,,OVC008,0.31,VWS V14.01,2013-11-06 08:40:00,
2013-11-06 02:42:00,59.9,59.9,29.09,WSW,255,4.0,4.9,100,0.28,,OVC008,0.31,VWS V14.01,2013-11-06 08:42:00,
2013-11-06 02:43:00,59.9,59.9,29.09,West,276,6.3,6.3,100,0.28,,OVC008,0.31,VWS V14.01,2013-11-06 08:43:00,
2013-11-06 02:44:00,59.9,59.9,29.09,West,265,5.8,7.6,100,0.28,,OVC008,0.31,VWS V14.01,2013-11-06 08:44:00,
2013-11-06 02:46:00,60.1,60.1,29.09,West,278,5.4,5.4,100,0.31,,OVC008,0.35,VWS V14.01,2013-11-06 08:46:00,
2013-11-06 02:47:00,60.1,60.1,29.09,West,273,3.6,4.9,100,0.31,,OVC008,0.35,VWS V14.01,2013-11-06 08:47:00,
2013-11-06 02:48:00,60.1,60.1,29.09,West,281,4.0,4.0,100,0.31,,OVC008,0.35,VWS V14.01,2013-11-06 08:48:00,
2013-11-06 02:49:00,60.1,60.1,29.09,West,274,3.6,4.0,100,0.31,,OVC008,0.35,VWS V14.01,2013-11-06 08:49:00,
2013-11-06 02:51:00,60.1,60.1,29.09,West,272,2.7,4.0,100,0.35,,OVC008,0.39,VWS V14.01,2013-11-06 08:51:00,
2013-11-06 02:53:00,59.9,59.9,29.09,West,272,0.0,2.2,100,0.35,,OVC008,0.39,VWS V14.01,2013-11-06 08:53:00,
2013-11-06 02:54:00,59.9,59.9,29.09,WSW,239,3.1,3.1,100,0.35,,OVC008,0.39,VWS V14.01,2013-11-06 08:54:00,
2013-11-06 02:56:00,60.1,60.1,29.12,SW,233,5.4,5.4,100,0.39,,OVC008,0.43,VWS V14.01,2013-11-06 08:56:00,
2013-11-06 02:57:00,59.9,59.9,29.12,SW,229,5.4,5.4,100,0.39,,OVC008,0.43,VWS V14.01,2013-11-06 08:57:00,
2013-11-06 02:59:00,60.1,60.1,29.12,SSW,192,4.0,5.8,100,0.39,,OVC008,0.43,VWS V14.01,2013-11-06 08:59:00,
2013-11-06 03:00:00,60.1,60.1,29.12,SSW,210,6.3,6.3,100,0.39,,OVC008,0.43,VWS V14.01,2013-11-06 09:00:00,
2013-11-06 03:01:00,60.1,60.1,29.12,SSW,196,4.9,5.8,100,0.39,,OVC008,0.43,VWS V14.01,2013-11-06 09:01:00,
2013-11-06 03:02:00,60.1,60.1,29.12,SW,222,5.8,5.8,100,0.39,, +RA,0.43,VWS V14.01,2013-11-06 09:02:00,
2013-11-06 03:04:00,60.1,60.1,29.12,SSW,212,5.4,5.4,100,0.39,, +RA,0.43,VWS V14.01,2013-11-06 09:04:00,
2013-11-06 03:05:00,60.1,60.1,29.12,SW,226,5.4,5.4,100,0.39,, +RA,0.43,VWS V14.01,2013-11-06 09:05:00,
2013-11-06 03:06:00,60.1,60.1,29.12,SW,228,6.3,6.3,100,0.39,, +RA,0.43,VWS V14.01,2013-11-06 09:06:00,
2013-11-06 03:07:00,60.1,60.1,29.12,SW,228,4.0,4.0,100,0.39,, +RA,0.43,VWS V14.01,2013-11-06 09:07:00,
2013-11-06 03:10:00,60.1,60.1,29.12,SW,233,4.9,4.9,100,0.39,, +RA,0.43,VWS V14.01,2013-11-06 09:10:00,
2013-11-06 03:11:00,60.1,60.1,29.12,WSW,250,3.6,4.0,100,0.39,, +RA,0.43,VWS V14.01,2013-11-06 09:11:00,
2013-11-06 03:12:00,60.1,60.1,29.12,WSW,238,4.9,5.4,100,0.43,, +RA,0.47,VWS V14.01,2013-11-06 09:12:00,
2013-11-06 03:13:00,60.1,60.1,29.12,WSW,237,4.0,5.4,100,0.43,, +RA,0.47,VWS V14.01,2013-11-06 09:13:00,
2013-11-06 03:15:00,60.1,60.1,29.12,SW,222,5.4,5.8,100,0.43,, +RA,0.47,VWS V14.01,2013-11-06 09:15:00,
2013-11-06 03:16:00,60.1,60.1,29.12,SSW,192,5.4,5.8,100,0.43,, +RA,0.47,VWS V14.01,2013-11-06 09:16:00,
2013-11-06 03:17:00,60.1,60.1,29.12,SSW,198,6.3,6.3,100,0.43,, +RA,0.47,VWS V14.01,2013-11-06 09:17:00,
2013-11-06 03:18:00,60.1,60.1,29.12,SSE,166,5.8,7.2,100,0.43,, +RA,0.47,VWS V14.01,2013-11-06 09:18:00,
2013-11-06 03:20:00,60.3,60.3,29.12,South,185,5.4,6.7,100,0.43,, +RA,0.47,VWS V14.01,2013-11-06 09:20:00,
2013-11-06 03:21:00,60.3,60.3,29.12,South,182,5.8,6.3,100,0.43,, +RA,0.47,VWS V14.01,2013-11-06 09:21:00,
2013-11-06 03:22:00,60.3,60.3,29.12,South,180,6.3,6.3,100,0.43,, +RA,0.47,VWS V14.01,2013-11-06 09:22:00,
2013-11-06 03:23:00,60.3,60.3,29.12,SSE,168,6.3,6.3,100,0.39,, +RA,0.47,VWS V14.01,2013-11-06 09:23:00,
2013-11-06 03:24:00,60.3,60.3,29.12,South,178,5.8,6.3,100,0.39,, +RA,0.47,VWS V14.01,2013-11-06 09:24:00,
2013-11-06 03:25:00,60.3,60.3,29.09,SSE,149,3.6,6.3,100,0.39,, +RA,0.47,VWS V14.01,2013-11-06 09:25:00,
2013-11-06 03:26:00,60.3,60.3,29.09,South,178,4.9,5.8,100,0.39,, +RA,0.47,VWS V14.01,2013-11-06 09:26:00,
2013-11-06 03:28:00,60.3,60.3,29.09,SSE,155,5.8,8.1,100,0.39,, +RA,0.47,VWS V14.01,2013-11-06 09:28:00,
2013-11-06 03:29:00,60.3,60.3,29.09,SSE,150,5.8,6.3,100,0.39,, +RA,0.47,VWS V14.01,2013-11-06 09:29:00,
2013-11-06 03:30:00,60.3,60.3,29.09,SSE,157,8.7,8.7,100,0.31,, +RA,0.47,VWS V14.01,2013-11-06 09:30:00,
2013-11-06 03:32:00,60.4,60.4,29.09,SSE,153,8.1,8.1,100,0.28,, +RA,0.47,VWS V14.01,2013-11-06 09:32:00,
2013-11-06 03:33:00,60.4,60.4,29.09,South,183,8.7,8.7,100,0.24,, +RA,0.47,VWS V14.01,2013-11-06 09:33:00,
2013-11-06 03:34:00,60.4,60.4,29.09,South,175,3.1,8.7,100,0.24,, +RA,0.47,VWS V14.01,2013-11-06 09:34:00,
2013-11-06 03:35:00,60.4,60.4,29.09,SSE,156,6.3,6.3,100,0.20,, +RA,0.47,VWS V14.01,2013-11-06 09:35:00,
2013-11-06 03:37:00,60.4,60.4,29.09,South,177,5.8,7.6,100,0.20,, +RA,0.47,VWS V14.01,2013-11-06 09:37:00,
2013-11-06 03:39:00,60.4,60.4,29.09,South,178,6.3,7.6,100,0.20,, +RA,0.47,VWS V14.01,2013-11-06 09:39:00,
2013-11-06 03:40:00,60.4,60.4,29.09,SSE,165,6.7,6.7,100,0.16,, +RA,0.47,VWS V14.01,2013-11-06 09:40:00,
2013-11-06 03:41:00,60.4,60.4,29.09,SSE,168,5.8,8.3,100,0.16,, +RA,0.47,VWS V14.01,2013-11-06 09:41:00,
2013-11-06 03:42:00,60.4,60.4,29.09,SSW,195,8.1,8.1,100,0.16,, +RA,0.47,VWS V14.01,2013-11-06 09:42:00,
2013-11-06 03:43:00,60.4,60.4,29.09,South,179,6.3,8.1,100,0.16,, +RA,0.47,VWS V14.01,2013-11-06 09:43:00,
2013-11-06 03:44:00,60.4,60.4,29.09,South,185,5.8,7.6,100,0.16,, +RA,0.47,VWS V14.01,2013-11-06 09:44:00,
2013-11-06 03:45:00,60.4,60.4,29.09,SE,135,7.2,7.6,100,0.16,, +RA,0.47,VWS V14.01,2013-11-06 09:45:00,
2013-11-06 03:46:00,60.4,60.4,29.09,SSE,155,8.1,8.7,100,0.12,, +RA,0.47,VWS V14.01,2013-11-06 09:46:00,
2013-11-06 03:48:00,60.4,60.4,29.09,SE,146,5.4,6.3,100,0.12,, +RA,0.47,VWS V14.01,2013-11-06 09:48:00,
2013-11-06 03:49:00,60.4,60.4,29.09,SSE,166,8.1,8.1,100,0.12,, +RA,0.47,VWS V14.01,2013-11-06 09:49:00,
2013-11-06 03:50:00,60.4,60.4,29.09,South,184,8.3,8.3,100,0.12,, +RA,0.47,VWS V14.01,2013-11-06 09:50:00,
2013-11-06 03:51:00,60.4,60.4,29.09,SSE,168,7.6,8.3,100,0.08,, +RA,0.47,VWS V14.01,2013-11-06 09:51:00,
2013-11-06 03:54:00,60.6,60.6,29.09,South,183,6.3,6.3,100,0.08,, +RA,0.47,VWS V14.01,2013-11-06 09:54:00,
2013-11-06 03:55:00,60.6,60.6,29.09,SSE,168,8.7,8.7,100,0.08,, +RA,0.47,VWS V14.01,2013-11-06 09:55:00,
2013-11-06 03:56:00,60.6,60.6,29.09,SSW,208,6.3,8.1,100,0.04,, +RA,0.47,VWS V14.01,2013-11-06 09:56:00,
2013-11-06 03:57:00,60.6,60.6,29.09,South,174,8.3,9.2,100,0.04,, +RA,0.47,VWS V14.01,2013-11-06 09:57:00,
2013-11-06 03:59:00,60.6,60.6,29.09,South,191,10.5,10.5,100,0.04,, +RA,0.47,VWS V14.01,2013-11-06 09:59:00,
2013-11-06 04:00:00,60.6,60.6,29.09,SSW,193,8.3,10.5,100,0.04,, +RA,0.47,VWS V14.01,2013-11-06 10:00:00,
2013-11-06 04:01:00,60.6,60.6,29.09,SSW,208,7.2,7.2,100,0.04,, +RA,0.47,VWS V14.01,2013-11-06 10:01:00,
2013-11-06 04:03:00,60.6,60.6,29.09,South,169,7.6,10.5,100,0.04,,-RA,0.47,VWS V14.01,2013-11-06 10:03:00,
2013-11-06 04:04:00,60.6,60.6,29.09,South,186,8.3,8.3,100,0.04,,-RA,0.47,VWS V14.01,2013-11-06 10:04:00,
2013-11-06 04:05:00,60.6,60.6,29.09,South,180,7.6,8.3,100,0.04,,-RA,0.47,VWS V14.01,2013-11-06 10:05:00,
2013-11-06 04:08:00,60.8,60.8,29.09,SSW,192,8.1,8.7,100,0.04,,-RA,0.47,VWS V14.01,2013-11-06 10:08:00,
2013-11-06 04:09:00,60.8,60.8,29.09,South,189,8.1,11.0,100,0.04,,-RA,0.47,VWS V14.01,2013-11-06 10:09:00,
2013-11-06 04:12:00,60.8,60.8,29.09,SSW,194,7.6,8.3,100,0.04,,-RA,0.47,VWS V14.01,2013-11-06 10:12:00,
2013-11-06 04:13:00,60.8,60.8,29.09,SSW,208,8.1,8.7,100,0.00,,-RA,0.47,VWS V14.01,2013-11-06 10:13:00,
2013-11-06 04:14:00,60.8,60.8,29.09,South,186,5.8,8.7,100,0.00,,-RA,0.47,VWS V14.01,2013-11-06 10:14:00,
2013-11-06 04:15:00,60.8,60.8,29.09,SSW,193,8.1,11.0,100,0.00,,-RA,0.47,VWS V14.01,2013-11-06 10:15:00,
2013-11-06 04:17:00,60.8,60.8,29.09,South,173,8.3,8.3,100,0.00,,-RA,0.47,VWS V14.01,2013-11-06 10:17:00,
2013-11-06 04:18:00,60.8,60.8,29.09,SSE,166,7.6,10.1,100,0.00,,-RA,0.47,VWS V14.01,2013-11-06 10:18:00,
2013-11-06 04:19:00,60.8,60.8,29.09,South,184,8.1,8.7,100,0.00,,-RA,0.47,VWS V14.01,2013-11-06 10:19:00,
2013-11-06 04:21:00,60.8,60.8,29.09,SSW,198,5.8,8.1,100,0.00,,-RA,0.47,VWS V14.01,2013-11-06 10:21:00,
2013-11-06 04:22:00,60.8,60.8,29.09,South,182,8.7,10.5,100,0.00,,-RA,0.47,VWS V14.01,2013-11-06 10:22:00,
2013-11-06 04:23:00,60.8,60.8,29.09,South,190,10.5,10.5,100,0.00,,-RA,0.47,VWS V14.01,2013-11-06 10:23:00,
2013-11-06 04:24:00,60.8,60.8,29.09,South,180,8.7,8.7,100,0.00,,-RA,0.47,VWS V14.01,2013-11-06 10:24:00,
2013-11-06 04:25:00,60.8,60.8,29.09,SSE,159,8.7,11.0,100,0.00,,-RA,0.47,VWS V14.01,2013-11-06 10:25:00,
2013-11-06 04:26:00,60.8,60.8,29.09,SSE,154,10.1,10.1,100,0.00,,-RA,0.47,VWS V14.01,2013-11-06 10:26:00,
2013-11-06 04:28:00,61.0,61.0,29.09,SSE,163,7.6,10.5,100,0.00,,-RA,0.47,VWS V14.01,2013-11-06 10:28:00,
2013-11-06 04:31:00,61.0,61.0,29.09,South,180,8.3,10.1,100,0.00,,-RA,0.47,VWS V14.01,2013-11-06 10:31:00,
2013-11-06 04:32:00,61.0,61.0,29.09,SSW,197,11.0,11.0,100,0.00,,-RA,0.47,VWS V14.01,2013-11-06 10:32:00,
2013-11-06 04:33:00,61.2,61.2,29.09,SSE,167,7.6,10.5,100,0.00,,-RA,0.47,VWS V14.01,2013-11-06 10:33:00,
2013-11-06 04:34:00,61.2,61.2,29.09,SSE,152,6.3,11.0,100,0.00,,-RA,0.47,VWS V14.01,2013-11-06 10:34:00,
2013-11-06 04:35:00,61.2,61.2,29.09,ESE,120,6.3,10.1,100,0.00,,-RA,0.47,VWS V14.01,2013-11-06 10:35:00,
2013-11-06 04:37:00,61.2,61.2,29.09,South,191,11.0,11.0,100,0.00,,-RA,0.47,VWS V14.01,2013-11-06 10:37:00,
2013-11-06 04:38:00,61.2,61.2,29.09,SSE,157,8.1,8.1,100,0.00,,-RA,0.47,VWS V14.01,2013-11-06 10:38:00,
2013-11-06 04:40:00,61.3,61.3,29.09,SSE,167,8.3,10.5,100,0.00,,-RA,0.47,VWS V14.01,2013-11-06 10:40:00,
2013-11-06 04:41:00,61.3,61.3,29.09,South,181,10.5,10.5,100,0.00,,-RA,0.47,VWS V14.01,2013-11-06 10:41:00,
2013-11-06 04:42:00,61.3,61.3,29.09,SSW,203,10.1,10.1,100,0.00,,-RA,0.47,VWS V14.01,2013-11-06 10:42:00,
2013-11-06 04:43:00,61.3,61.3,29.09,SSW,209,8.3,11.0,100,0.00,,-RA,0.47,VWS V14.01,2013-11-06 10:43:00,
2013-11-06 04:45:00,61.3,61.3,29.09,South,177,8.7,11.0,100,0.00,,-RA,0.47,VWS V14.01,2013-11-06 10:45:00,
2013-11-06 04:46:00,61.3,61.3,29.09,South,191,8.3,8.7,100,0.00,,-RA,0.47,VWS V14.01,2013-11-06 10:46:00,
2013-11-06 04:47:00,61.3,61.3,29.09,SSW,200,8.1,8.3,100,0.00,,-RA,0.47,VWS V14.01,2013-11-06 10:47:00,
2013-11-06 04:48:00,61.3,61.3,29.09,SSE,164,8.1,8.1,100,0.04,,-RA,0.51,VWS V14.01,2013-11-06 10:48:00,
2013-11-06 04:49:00,61.3,61.3,29.09,South,189,7.6,8.1,100,0.04,,-RA,0.51,VWS V14.01,2013-11-06 10:49:00,
2013-11-06 04:50:00,61.3,61.3,29.09,South,188,10.5,10.5,100,0.04,,-RA,0.51,VWS V14.01,2013-11-06 10:50:00,
2013-11-06 04:51:00,61.5,61.5,29.09,SSW,213,10.1,10.5,100,0.04,,-RA,0.51,VWS V14.01,2013-11-06 10:51:00,
2013-11-06 04:52:00,61.5,61.5,29.09,SSW,197,10.1,12.3,100,0.04,,-RA,0.51,VWS V14.01,2013-11-06 10:52:00,
2013-11-06 04:53:00,61.5,61.5,29.09,SSW,204,8.3,10.1,100,0.04,,-RA,0.51,VWS V14.01,2013-11-06 10:53:00,
2013-11-06 04:55:00,61.7,61.7,29.09,South,179,8.7,10.1,100,0.04,,-RA,0.51,VWS V14.01,2013-11-06 10:55:00,
2013-11-06 04:57:00,61.7,61.7,29.09,SW,219,7.6,8.7,100,0.04,,-RA,0.51,VWS V14.01,2013-11-06 10:57:00,
2013-11-06 04:58:00,61.7,61.7,29.09,SSW,213,10.5,10.5,100,0.04,,-RA,0.51,VWS V14.01,2013-11-06 10:58:00,
2013-11-06 04:59:00,61.7,61.7,29.09,SSW,208,11.0,11.0,100,0.04,,-RA,0.51,VWS V14.01,2013-11-06 10:59:00,
2013-11-06 05:00:00,61.7,61.7,29.09,South,176,10.5,11.0,100,0.04,,-RA,0.51,VWS V14.01,2013-11-06 11:00:00,
2013-11-06 05:01:00,61.7,61.7,29.09,South,185,10.5,10.5,100,0.04,,-RA,0.51,VWS V14.01,2013-11-06 11:01:00,
2013-11-06 05:03:00,61.7,61.7,29.09,SSW,200,8.3,8.3,100,0.04,,-RA,0.51,VWS V14.01,2013-11-06 11:03:00,
2013-11-06 05:04:00,61.7,61.7,29.09,SSW,208,10.1,10.1,100,0.04,,-RA,0.51,VWS V14.01,2013-11-06 11:04:00,
2013-11-06 05:06:00,61.7,61.7,29.09,SW,224,8.1,8.1,100,0.04,,-RA,0.51,VWS V14.01,2013-11-06 11:06:00,
2013-11-06 05:07:00,61.7,61.7,29.09,SSW,201,10.1,10.5,100,0.04,,-RA,0.51,VWS V14.01,2013-11-06 11:07:00,
2013-11-06 05:09:00,61.7,61.7,29.09,South,175,10.1,10.1,100,0.04,,-RA,0.51,VWS V14.01,2013-11-06 11:09:00,
2013-11-06 05:10:00,61.7,61.7,29.09,SSW,208,8.7,10.1,100,0.04,,-RA,0.51,VWS V14.01,2013-11-06 11:10:00,
2013-11-06 05:11:00,61.7,61.7,29.09,South,180,8.7,10.5,100,0.04,,-RA,0.51,VWS V14.01,2013-11-06 11:11:00,
2013-11-06 05:12:00,61.7,61.7,29.09,South,181,10.5,10.5,100,0.04,,-RA,0.51,VWS V14.01,2013-11-06 11:12:00,
2013-11-06 05:14:00,61.7,61.7,29.09,SW,214,11.0,11.0,100,0.04,,-RA,0.51,VWS V14.01,2013-11-06 11:14:00,
2013-11-06 05:15:00,61.7,61.7,29.09,SW,221,8.3,12.8,100,0.04,,-RA,0.51,VWS V14.01,2013-11-06 11:15:00,
2013-11-06 05:16:00,61.7,61.7,29.09,SW,235,10.1,11.0,100,0.04,,-RA,0.51,VWS V14.01,2013-11-06 11:16:00,
2013-11-06 05:17:00,61.9,61.9,29.09,SSW,197,9.6,13.2,100,0.04,,-RA,0.51,VWS V14.01,2013-11-06 11:17:00,
2013-11-06 05:19:00,61.9,61.9,29.09,WSW,242,8.3,8.3,100,0.04,,-RA,0.51,VWS V14.01,2013-11-06 11:19:00,
2013-11-06 05:21:00,61.9,61.9,29.09,SSW,207,10.5,10.5,100,0.04,,-RA,0.51,VWS V14.01,2013-11-06 11:21:00,
2013-11-06 05:22:00,61.9,61.9,29.09,South,189,8.3,8.3,100,0.04,,-RA,0.51,VWS V14.01,2013-11-06 11:22:00,
2013-11-06 05:23:00,61.9,61.9,29.09,SW,235,8.1,8.7,100,0.04,,-RA,0.51,VWS V14.01,2013-11-06 11:23:00,
2013-11-06 05:24:00,61.9,61.9,29.09,SW,220,11.0,11.0,100,0.04,,-RA,0.51,VWS V14.01,2013-11-06 11:24:00,
2013-11-06 05:26:00,61.7,61.7,29.09,SW,228,8.1,9.6,100,0.08,,-RA,0.55,VWS V14.01,2013-11-06 11:26:00,
2013-11-06 05:27:00,61.7,61.7,29.09,SW,233,10.1,10.1,100,0.08,,-RA,0.55,VWS V14.01,2013-11-06 11:27:00,
2013-11-06 05:28:00,61.7,61.7,29.09,SW,222,10.5,11.0,100,0.08,,-RA,0.55,VWS V14.01,2013-11-06 11:28:00,
2013-11-06 05:30:00,61.7,61.7,29.09,SW,232,7.6,7.6,100,0.08,,-RA,0.55,VWS V14.01,2013-11-06 11:30:00,
2013-11-06 05:32:00,61.7,61.7,29.09,SW,222,6.3,8.7,100,0.08,,-RA,0.55,VWS V14.01,2013-11-06 11:32:00,
2013-11-06 05:33:00,61.7,61.7,29.09,SW,229,6.3,6.7,100,0.08,,-RA,0.55,VWS V14.01,2013-11-06 11:33:00,
2013-11-06 05:34:00,61.7,61.7,29.09,SW,231,5.4,7.6,100,0.08,,-RA,0.55,VWS V14.01,2013-11-06 11:34:00,
2013-11-06 05:35:00,61.7,61.7,29.09,WSW,237,8.1,8.1,100,0.08,,-RA,0.55,VWS V14.01,2013-11-06 11:35:00,
2013-11-06 05:38:00,61.7,61.7,29.09,SSW,196,8.3,8.7,100,0.08,,-RA,0.55,VWS V14.01,2013-11-06 11:38:00,
2013-11-06 05:39:00,61.7,61.7,29.09,SSW,193,6.3,8.3,100,0.08,,-RA,0.55,VWS V14.01,2013-11-06 11:39:00,
2013-11-06 05:40:00,61.7,61.7,29.09,SW,221,7.6,7.6,100,0.08,,-RA,0.55,VWS V14.01,2013-11-06 11:40:00,
2013-11-06 05:43:00,61.7,61.7,29.09,WSW,249,5.8,10.1,100,0.08,,-RA,0.55,VWS V14.01,2013-11-06 11:43:00,
2013-11-06 05:44:00,61.5,61.5,29.09,NW,307,8.7,8.7,100,0.08,,-RA,0.55,VWS V14.01,2013-11-06 11:44:00,
2013-11-06 05:45:00,59.2,59.2,29.09,WNW,301,17.0,17.0,100,0.08,,-RA,0.55,VWS V14.01,2013-11-06 11:45:00,
2013-11-06 05:46:00,58.3,58.3,29.09,West,278,17.0,17.0,100,0.08,,-RA,0.55,VWS V14.01,2013-11-06 11:46:00,
2013-11-06 05:47:00,57.0,57.0,29.09,WSW,252,13.2,13.2,100,0.08,,-RA,0.55,VWS V14.01,2013-11-06 11:47:00,
2013-11-06 05:49:00,55.9,54.2,29.09,West,280,6.3,15.4,94,0.08,,-RA,0.55,VWS V14.01,2013-11-06 11:49:00,
2013-11-06 05:51:00,55.0,53.3,29.09,WNW,298,8.3,10.5,94,0.04,,-RA,0.55,VWS V14.01,2013-11-06 11:51:00,
2013-11-06 05:52:00,54.5,52.8,29.09,WNW,286,8.7,15.4,94,0.04,,-RA,0.55,VWS V14.01,2013-11-06 11:52:00,
2013-11-06 05:54:00,54.0,52.3,29.09,West,261,7.6,15.0,94,0.04,,-RA,0.55,VWS V14.01,2013-11-06 11:54:00,
2013-11-06 05:55:00,54.0,52.3,29.15,NW,307,8.3,11.0,94,0.04,,-RA,0.55,VWS V14.01,2013-11-06 11:55:00,
2013-11-06 05:57:00,53.4,52.3,29.15,NW,310,8.1,8.3,96,0.04,,-RA,0.55,VWS V14.01,2013-11-06 11:57:00,
2013-11-06 06:00:00,53.1,53.1,29.15,NW,315,5.8,8.7,100,0.04,,-RA,0.55,VWS V14.01,2013-11-06 12:00:00,
2013-11-06 06:01:00,53.1,53.1,29.15,WNW,285,5.8,8.3,100,0.04,,-RA,0.55,VWS V14.01,2013-11-06 12:01:00,
2013-11-06 06:02:00,53.1,53.1,29.15,NW,309,5.4,6.3,100,0.04,,-RA,0.55,VWS V14.01,2013-11-06 12:02:00,
2013-11-06 06:05:00,52.9,52.9,29.15,NW,325,7.6,8.7,100,0.04,,-RA,0.55,VWS V14.01,2013-11-06 12:05:00,
2013-11-06 06:06:00,52.9,52.9,29.15,WNW,299,8.1,8.1,100,0.04,,-RA,0.55,VWS V14.01,2013-11-06 12:06:00,
2013-11-06 06:07:00,52.7,52.7,29.15,NW,310,10.5,11.0,100,0.04,,-RA,0.55,VWS V14.01,2013-11-06 12:07:00,
2013-11-06 06:08:00,52.7,52.7,29.15,WSW,257,8.1,10.1,100,0.04,,-RA,0.55,VWS V14.01,2013-11-06 12:08:00,
2013-11-06 06:11:00,52.5,52.5,29.15,WNW,288,6.3,8.1,100,0.04,,-RA,0.55,VWS V14.01,2013-11-06 12:11:00,
2013-11-06 06:12:00,52.3,52.3,29.15,WSW,258,3.6,4.9,100,0.04,,-RA,0.55,VWS V14.01,2013-11-06 12:12:00,
2013-11-06 06:13:00,52.3,52.3,29.15,SW,214,5.4,5.4,100,0.04,,-RA,0.55,VWS V14.01,2013-11-06 12:13:00,
2013-11-06 06:14:00,52.3,52.3,29.15,WNW,303,4.0,4.0,100,0.04,,-RA,0.55,VWS V14.01,2013-11-06 12:14:00,
2013-11-06 06:16:00,52.2,52.2,29.15,NW,319,5.4,5.8,100,0.04,,-RA,0.55,VWS V14.01,2013-11-06 12:16:00,
2013-11-06 06:18:00,52.2,52.2,29.15,NW,304,5.4,8.1,100,0.04,,-RA,0.55,VWS V14.01,2013-11-06 12:18:00,
2013-11-06 06:19:00,52.2,52.2,29.15,WNW,295,5.4,5.4,100,0.04,,-RA,0.55,VWS V14.01,2013-11-06 12:19:00,
2013-11-06 06:20:00,52.2,52.2,29.15,NW,311,6.3,6.3,100,0.04,,-RA,0.55,VWS V14.01,2013-11-06 12:20:00,
2013-11-06 06:22:00,52.0,52.0,29.15,NW,314,8.3,8.3,100,0.04,,-RA,0.55,VWS V14.01,2013-11-06 12:22:00,
2013-11-06 06:24:00,52.0,52.0,29.15,NW,311,5.4,5.4,100,0.04,,-RA,0.55,VWS V14.01,2013-11-06 12:24:00,
2013-11-06 06:25:00,52.0,52.0,29.15,NW,311,5.4,5.8,100,0.04,,-RA,0.55,VWS V14.01,2013-11-06 12:25:00,
2013-11-06 06:26:00,52.2,52.2,29.15,NW,322,6.3,6.3,100,0.00,,-RA,0.55,VWS V14.01,2013-11-06 12:26:00,
2013-11-06 06:27:00,52.2,52.2,29.15,NW,305,3.6,6.3,100,0.00,,-RA,0.55,VWS V14.01,2013-11-06 12:27:00,
2013-11-06 06:29:00,52.0,52.0,29.15,WNW,298,10.5,10.5,100,0.00,,-RA,0.04,VWS V14.01,2013-11-06 12:29:00,
2013-11-06 06:30:00,52.0,52.0,29.15,NW,308,10.1,10.1,100,0.00,,-RA,0.55,VWS V14.01,2013-11-06 12:30:00,
2013-11-06 06:31:00,52.0,52.0,29.15,NW,321,12.8,12.8,100,0.00,,-RA,0.55,VWS V14.01,2013-11-06 12:31:00,
2013-11-06 06:33:00,51.6,51.6,29.15,NW,311,12.3,12.3,100,0.00,,-RA,0.55,VWS V14.01,2013-11-06 12:33:00,
2013-11-06 06:35:00,51.4,51.4,29.15,NW,325,15.0,15.0,100,0.00,,-RA,0.55,VWS V14.01,2013-11-06 12:35:00,
2013-11-06 06:36:00,51.4,51.4,29.15,North,350,12.3,15.0,100,0.00,,-RA,0.55,VWS V14.01,2013-11-06 12:36:00,
2013-11-06 06:37:00,51.4,51.4,29.15,WNW,296,8.1,13.2,100,0.00,,-RA,0.55,VWS V14.01,2013-11-06 12:37:00,
2013-11-06 06:38:00,51.4,51.4,29.15,WSW,257,8.1,8.3,100,0.00,,-RA,0.55,VWS V14.01,2013-11-06 12:38:00,
2013-11-06 06:41:00,51.3,51.3,29.15,NNW,329,15.0,15.0,100,0.00,,-RA,0.55,VWS V14.01,2013-11-06 12:41:00,
2013-11-06 06:42:00,50.9,50.9,29.15,NW,317,12.3,12.3,100,0.00,,-RA,0.55,VWS V14.01,2013-11-06 12:42:00,
2013-11-06 06:43:00,50.7,50.7,29.15,NW,317,11.0,13.2,100,0.00,,-RA,0.55,VWS V14.01,2013-11-06 12:43:00,
2013-11-06 06:44:00,50.7,50.7,29.15,NW,314,13.2,13.2,100,0.00,,-RA,0.55,VWS V14.01,2013-11-06 12:44:00,
2013-11-06 06:45:00,50.5,50.5,29.15,NW,314,12.3,12.3,100,0.00,,-RA,0.55,VWS V14.01,2013-11-06 12:45:00,
2013-11-06 06:47:00,50.7,50.7,29.15,NW,317,8.3,8.3,100,0.00,,-RA,0.55,VWS V14.01,2013-11-06 12:47:00,
2013-11-06 06:48:00,50.7,50.7,29.15,NW,306,10.5,10.5,100,0.00,,-RA,0.55,VWS V14.01,2013-11-06 12:48:00,
2013-11-06 06:49:00,50.5,50.5,29.15,WNW,301,10.5,10.5,100,0.00,,-RA,0.55,VWS V14.01,2013-11-06 12:49:00,
2013-11-06 06:50:00,50.4,50.4,29.15,NW,326,10.5,10.5,100,0.00,,-RA,0.55,VWS V14.01,2013-11-06 12:50:00,
2013-11-06 06:52:00,50.2,50.2,29.15,NW,311,12.8,12.8,100,0.00,,-RA,0.55,VWS V14.01,2013-11-06 12:52:00,
2013-11-06 06:53:00,49.8,49.8,29.15,NW,309,6.3,8.3,100,0.04,,-RA,0.59,VWS V14.01,2013-11-06 12:53:00,
2013-11-06 06:54:00,49.8,49.8,29.15,WNW,296,7.6,8.3,100,0.04,,-RA,0.59,VWS V14.01,2013-11-06 12:54:00,
2013-11-06 06:55:00,49.6,49.6,29.15,WNW,299,8.1,12.8,100,0.04,,-RA,0.59,VWS V14.01,2013-11-06 12:55:00,
2013-11-06 06:57:00,49.5,49.5,29.15,NW,318,10.5,10.5,100,0.04,,-RA,0.59,VWS V14.01,2013-11-06 12:57:00,
2013-11-06 06:59:00,49.3,49.3,29.15,WNW,302,17.4,17.4,100,0.04,,-RA,0.59,VWS V14.01,2013-11-06 12:59:00,
2013-11-06 07:00:00,48.9,48.9,29.15,WNW,290,9.2,9.2,100,0.04,,-RA,0.59,VWS V14.01,2013-11-06 13:00:00,
2013-11-06 07:02:00,48.6,48.6,29.15,NW,310,11.0,11.0,100,0.04,,-RA,0.59,VWS V14.01,2013-11-06 13:02:00,
2013-11-06 07:03:00,48.6,48.6,29.15,NW,304,13.2,15.4,100,0.04,,-RA,0.59,VWS V14.01,2013-11-06 13:03:00,
2013-11-06 07:04:00,48.4,48.4,29.15,West,277,15.4,15.4,100,0.04,,-RA,0.59,VWS V14.01,2013-11-06 13:04:00,
2013-11-06 07:05:00,48.0,48.0,29.15,NNW,330,11.0,21.5,100,0.04,,-RA,0.59,VWS V14.01,2013-11-06 13:05:00,
2013-11-06 07:08:00,47.1,47.1,29.15,WNW,295,17.4,17.4,100,0.04,,-RA,0.59,VWS V14.01,2013-11-06 13:08:00,
2013-11-06 07:09:00,47.1,47.1,29.18,NW,313,10.5,17.4,100,0.04,,-RA,0.59,VWS V14.01,2013-11-06 13:09:00,
2013-11-06 07:10:00,47.1,47.1,29.18,WNW,294,11.0,12.8,100,0.04,,-RA,0.59,VWS V14.01,2013-11-06 13:10:00,
2013-11-06 07:12:00,46.8,46.8,29.18,NW,313,10.5,18.3,100,0.04,,-RA,0.59,VWS V14.01,2013-11-06 13:12:00,
2013-11-06 07:14:00,46.8,46.8,29.18,NW,319,10.1,11.0,100,0.04,,-RA,0.59,VWS V14.01,2013-11-06 13:14:00,
2013-11-06 07:15:00,46.9,46.9,29.18,NW,310,5.4,10.1,100,0.04,,-RA,0.59,VWS V14.01,2013-11-06 13:15:00,
2013-11-06 07:18:00,46.8,46.8,29.18,NW,312,8.3,10.5,100,0.04,,-RA,0.59,VWS V14.01,2013-11-06 13:18:00,
2013-11-06 07:19:00,46.8,46.8,29.18,NW,314,13.2,13.6,100,0.04,,-RA,0.59,VWS V14.01,2013-11-06 13:19:00,
2013-11-06 07:20:00,46.8,46.8,29.18,NW,319,10.5,13.2,100,0.04,,-RA,0.59,VWS V14.01,2013-11-06 13:20:00,
2013-11-06 07:21:00,46.9,46.9,29.18,NW,308,11.0,11.0,100,0.04,,-RA,0.59,VWS V14.01,2013-11-06 13:21:00,
2013-11-06 07:22:00,46.9,46.9,29.18,West,277,11.0,11.0,100,0.04,,-RA,0.59,VWS V14.01,2013-11-06 13:22:00,
2013-11-06 07:24:00,46.9,46.9,29.21,NW,304,11.0,13.2,100,0.04,,-RA,0.59,VWS V14.01,2013-11-06 13:24:00,
2013-11-06 07:25:00,46.9,46.9,29.21,WNW,288,13.2,13.2,100,0.04,,-RA,0.59,VWS V14.01,2013-11-06 13:25:00,
2013-11-06 07:26:00,46.8,46.8,29.21,NNW,329,13.6,18.3,100,0.04,,-RA,0.59,VWS V14.01,2013-11-06 13:26:00,
2013-11-06 07:29:00,46.2,46.2,29.21,NW,323,15.9,15.9,100,0.04,,-RA,0.59,VWS V14.01,2013-11-06 13:29:00,
2013-11-06 07:30:00,46.4,46.4,29.21,NW,320,13.2,15.4,100,0.04,,-RA,0.59,VWS V14.01,2013-11-06 13:30:00,
2013-11-06 07:31:00,46.4,46.4,29.21,NW,306,8.3,13.2,100,0.04,,-RA,0.59,VWS V14.01,2013-11-06 13:31:00,
2013-11-06 07:32:00,46.4,46.4,29.21,NW,324,15.0,15.0,100,0.04,,-RA,0.59,VWS V14.01,2013-11-06 13:32:00,
2013-11-06 07:34:00,46.2,46.2,29.21,NW,305,11.0,11.0,100,0.04,,-RA,0.59,VWS V14.01,2013-11-06 13:34:00,
2013-11-06 07:35:00,46.2,46.2,29.21,NNW,341,8.1,10.5,100,0.04,,-RA,0.59,VWS V14.01,2013-11-06 13:35:00,
2013-11-06 07:36:00,46.0,46.0,29.21,NW,313,11.0,13.2,100,0.04,,-RA,0.59,VWS V14.01,2013-11-06 13:36:00,
2013-11-06 07:37:00,46.0,46.0,29.21,NW,326,10.5,11.0,100,0.04,,-RA,0.59,VWS V14.01,2013-11-06 13:37:00,
2013-11-06 07:39:00,46.0,46.0,29.21,NNW,327,9.2,11.9,100,0.04,,-RA,0.59,VWS V14.01,2013-11-06 13:39:00,
2013-11-06 07:40:00,46.0,46.0,29.21,NNW,337,8.1,8.3,100,0.04,,-RA,0.59,VWS V14.01,2013-11-06 13:40:00,
2013-11-06 07:41:00,46.0,46.0,29.21,NNW,337,10.5,10.5,100,0.04,,-RA,0.59,VWS V14.01,2013-11-06 13:41:00,
2013-11-06 07:43:00,46.0,46.0,29.21,NW,326,15.4,15.4,100,0.04,,-RA,0.59,VWS V14.01,2013-11-06 13:43:00,
2013-11-06 07:44:00,46.0,46.0,29.21,NW,324,8.7,12.3,100,0.04,,-RA,0.59,VWS V14.01,2013-11-06 13:44:00,
2013-11-06 07:45:00,46.0,46.0,29.21,NNW,327,10.1,12.3,100,0.04,,-RA,0.59,VWS V14.01,2013-11-06 13:45:00,
2013-11-06 07:46:00,46.0,46.0,29.21,NW,310,10.1,10.1,100,0.04,,-RA,0.59,VWS V14.01,2013-11-06 13:46:00,
2013-11-06 07:47:00,46.0,46.0,29.21,NW,313,10.1,12.3,100,0.04,,-RA,0.59,VWS V14.01,2013-11-06 13:47:00,
2013-11-06 07:49:00,46.0,46.0,29.21,WNW,292,8.3,8.7,100,0.04,,-RA,0.59,VWS V14.01,2013-11-06 13:49:00,
2013-11-06 07:50:00,46.2,46.2,29.21,NW,305,8.3,8.7,100,0.04,,-RA,0.59,VWS V14.01,2013-11-06 13:50:00,
2013-11-06 07:51:00,46.2,46.2,29.21,NW,306,9.2,10.1,100,0.04,,-RA,0.59,VWS V14.01,2013-11-06 13:51:00,
2013-11-06 07:52:00,46.2,46.2,29.21,WNW,292,8.1,8.7,100,0.04,,-RA,0.59,VWS V14.01,2013-11-06 13:52:00,
2013-11-06 07:53:00,46.2,46.2,29.21,NW,314,9.2,11.9,100,0.00,,-RA,0.59,VWS V14.01,2013-11-06 13:53:00,
2013-11-06 07:54:00,46.2,46.2,29.21,NW,307,6.7,9.2,100,0.00,,-RA,0.59,VWS V14.01,2013-11-06 13:54:00,
2013-11-06 07:56:00,46.0,46.0,29.21,NW,308,8.3,10.1,100,0.00,,-RA,0.59,VWS V14.01,2013-11-06 13:56:00,
2013-11-06 07:57:00,46.0,46.0,29.21,WNW,285,8.3,10.5,100,0.00,,-RA,0.59,VWS V14.01,2013-11-06 13:57:00,
2013-11-06 07:58:00,46.0,46.0,29.21,WNW,288,7.6,12.3,100,0.00,,-RA,0.59,VWS V14.01,2013-11-06 13:58:00,
2013-11-06 08:00:00,45.9,45.9,29.21,NW,317,5.4,13.2,100,0.00,,-RA,0.59,VWS V14.01,2013-11-06 14:00:00,
2013-11-06 08:01:00,45.9,45.9,29.21,NW,314,10.5,11.0,100,0.00,,-RA,0.59,VWS V14.01,2013-11-06 14:01:00,
2013-11-06 08:02:00,45.9,45.9,29.21,NW,320,10.1,11.9,100,0.00,,OVC023,0.59,VWS V14.01,2013-11-06 14:02:00,
2013-11-06 08:03:00,45.9,45.9,29.21,West,277,8.7,8.7,100,0.00,,OVC023,0.59,VWS V14.01,2013-11-06 14:03:00,
2013-11-06 08:04:00,45.9,45.9,29.21,NW,313,9.6,9.6,100,0.00,,OVC023,0.59,VWS V14.01,2013-11-06 14:04:00,
2013-11-06 08:06:00,45.9,45.9,29.21,NW,308,8.3,11.0,100,0.00,,OVC023,0.59,VWS V14.01,2013-11-06 14:06:00,
2013-11-06 08:08:00,45.9,45.9,29.21,West,277,10.5,10.5,100,0.00,,OVC023,0.59,VWS V14.01,2013-11-06 14:08:00,
2013-11-06 08:09:00,45.9,45.9,29.23,NW,319,9.6,10.5,100,0.00,,OVC023,0.59,VWS V14.01,2013-11-06 14:09:00,
2013-11-06 08:11:00,45.9,45.9,29.23,NW,312,15.4,15.4,100,0.00,,OVC023,0.59,VWS V14.01,2013-11-06 14:11:00,
2013-11-06 08:12:00,45.9,45.9,29.23,NW,319,9.6,12.8,100,0.00,,OVC023,0.59,VWS V14.01,2013-11-06 14:12:00,
2013-11-06 08:13:00,45.9,45.9,29.23,NW,319,15.0,15.0,100,0.00,,OVC023,0.59,VWS V14.01,2013-11-06 14:13:00,
2013-11-06 08:15:00,45.9,45.9,29.23,NW,304,8.1,12.8,100,0.00,,OVC023,0.59,VWS V14.01,2013-11-06 14:15:00,
2013-11-06 08:17:00,45.7,45.7,29.23,WNW,290,7.6,10.5,100,0.00,,OVC023,0.59,VWS V14.01,2013-11-06 14:17:00,
2013-11-06 08:18:00,45.7,45.7,29.23,NW,307,7.6,8.3,100,0.00,,OVC023,0.59,VWS V14.01,2013-11-06 14:18:00,
2013-11-06 08:19:00,45.9,45.9,29.23,West,279,6.3,8.3,100,0.00,,OVC023,0.59,VWS V14.01,2013-11-06 14:19:00,
2013-11-06 08:20:00,45.9,45.9,29.23,NW,309,12.8,12.8,100,0.00,,OVC023,0.59,VWS V14.01,2013-11-06 14:20:00,
2013-11-06 08:21:00,45.9,45.9,29.23,NW,321,13.6,13.6,100,0.00,,OVC023,0.59,VWS V14.01,2013-11-06 14:21:00,
2013-11-06 08:22:00,45.9,45.9,29.23,NW,313,11.0,12.3,100,0.00,,OVC023,0.59,VWS V14.01,2013-11-06 14:22:00,
2013-11-06 08:24:00,45.7,45.7,29.23,NW,304,8.1,10.1,100,0.00,,OVC023,0.59,VWS V14.01,2013-11-06 14:24:00,
2013-11-06 08:25:00,45.7,45.7,29.23,West,277,8.3,10.5,100,0.00,,OVC023,0.59,VWS V14.01,2013-11-06 14:25:00,
2013-11-06 08:26:00,45.7,45.7,29.23,NW,320,7.6,7.6,100,0.00,,OVC023,0.59,VWS V14.01,2013-11-06 14:26:00,
2013-11-06 08:28:00,45.5,45.5,29.23,NW,318,5.4,8.3,100,0.00,,OVC023,0.59,VWS V14.01,2013-11-06 14:28:00,
2013-11-06 08:29:00,45.5,45.5,29.23,West,260,12.3,17.0,100,0.00,,OVC023,0.59,VWS V14.01,2013-11-06 14:29:00,
2013-11-06 08:30:00,45.3,45.3,29.23,WNW,284,8.3,10.5,100,0.00,,OVC023,0.59,VWS V14.01,2013-11-06 14:30:00,
2013-11-06 08:31:00,45.3,45.3,29.23,NNW,343,6.3,8.3,100,0.00,,OVC023,0.59,VWS V14.01,2013-11-06 14:31:00,
2013-11-06 08:32:00,45.1,45.1,29.23,WNW,291,10.1,13.2,100,0.00,,OVC023,0.59,VWS V14.01,2013-11-06 14:32:00,
2013-11-06 08:34:00,45.0,45.0,29.23,NW,321,11.0,13.2,100,0.00,,OVC023,0.59,VWS V14.01,2013-11-06 14:34:00,
2013-11-06 08:35:00,45.0,45.0,29.23,NW,305,12.3,13.6,100,0.00,,OVC023,0.59,VWS V14.01,2013-11-06 14:35:00,
2013-11-06 08:36:00,45.0,45.0,29.23,NW,308,11.0,15.4,100,0.00,,OVC023,0.59,VWS V14.01,2013-11-06 14:36:00,
2013-11-06 08:38:00,45.0,45.0,29.23,NNW,328,11.0,11.0,100,0.00,,OVC023,0.59,VWS V14.01,2013-11-06 14:38:00,
2013-11-06 08:40:00,44.6,44.6,29.23,NW,323,17.0,17.0,100,0.00,,OVC023,0.59,VWS V14.01,2013-11-06 14:40:00,
2013-11-06 08:41:00,44.6,44.6,29.23,NW,321,11.0,13.2,100,0.00,,OVC023,0.59,VWS V14.01,2013-11-06 14:41:00,
2013-11-06 08:42:00,44.4,44.4,29.23,WNW,292,12.3,12.8,100,0.00,,OVC023,0.59,VWS V14.01,2013-11-06 14:42:00,
2013-11-06 08:43:00,44.2,44.2,29.23,WNW,294,13.2,15.9,100,0.00,,OVC023,0.59,VWS V14.01,2013-11-06 14:43:00,
2013-11-06 08:46:00,43.9,43.9,29.23,WNW,297,9.2,12.8,100,0.00,,OVC023,0.59,VWS V14.01,2013-11-06 14:46:00,
2013-11-06 08:47:00,43.9,43.9,29.23,NW,316,10.1,10.1,100,0.00,,OVC023,0.59,VWS V14.01,2013-11-06 14:47:00,
2013-11-06 08:48:00,43.9,43.9,29.23,WNW,282,12.8,12.8,100,0.00,,OVC023,0.59,VWS V14.01,2013-11-06 14:48:00,
2013-11-06 08:52:00,43.7,43.7,29.23,WNW,297,11.0,15.0,100,0.00,,OVC023,0.59,VWS V14.01,2013-11-06 14:52:00,
2013-11-06 08:53:00,43.9,43.9,29.23,NW,305,10.1,13.2,100,0.00,,OVC023,0.59,VWS V14.01,2013-11-06 14:53:00,
2013-11-06 08:54:00,43.9,43.9,29.23,WNW,294,15.0,15.0,100,0.00,,OVC023,0.59,VWS V14.01,2013-11-06 14:54:00,
2013-11-06 08:55:00,44.1,44.1,29.26,NNW,332,10.1,11.0,100,0.00,,OVC023,0.59,VWS V14.01,2013-11-06 14:55:00,
2013-11-06 08:57:00,44.1,44.1,29.26,WNW,286,8.1,8.3,100,0.00,,OVC023,0.59,VWS V14.01,2013-11-06 14:57:00,
2013-11-06 08:58:00,43.9,43.9,29.26,NW,322,16.3,16.3,100,0.00,,OVC023,0.59,VWS V14.01,2013-11-06 14:58:00,
2013-11-06 08:59:00,43.9,43.9,29.26,West,280,12.3,17.4,100,0.00,,OVC023,0.59,VWS V14.01,2013-11-06 14:59:00,
2013-11-06 09:00:00,43.7,43.7,29.26,NW,317,11.0,12.3,100,0.00,,OVC023,0.59,VWS V14.01,2013-11-06 15:00:00,
2013-11-06 09:01:00,43.7,43.7,29.26,NW,314,12.8,12.8,100,0.00,,OVC023,0.59,VWS V14.01,2013-11-06 15:01:00,
2013-11-06 09:03:00,43.7,43.7,29.26,NW,324,12.8,15.0,100,0.00,,OVC015,0.59,VWS V14.01,2013-11-06 15:03:00,
2013-11-06 09:04:00,43.7,43.7,29.26,WNW,287,8.7,12.8,100,0.00,,OVC015,0.59,VWS V14.01,2013-11-06 15:04:00,
2013-11-06 09:05:00,43.7,43.7,29.26,NW,306,8.1,10.5,100,0.00,,OVC015,0.59,VWS V14.01,2013-11-06 15:05:00,
2013-11-06 09:06:00,43.7,43.7,29.26,NW,317,8.3,10.5,100,0.00,,OVC015,0.59,VWS V14.01,2013-11-06 15:06:00,
2013-11-06 09:08:00,43.5,43.5,29.26,WNW,301,10.5,15.0,100,0.00,,OVC015,0.59,VWS V14.01,2013-11-06 15:08:00,
2013-11-06 09:09:00,43.5,43.5,29.26,NW,304,8.1,15.0,100,0.00,,OVC015,0.59,VWS V14.01,2013-11-06 15:09:00,
2013-11-06 09:10:00,43.5,43.5,29.26,NW,306,8.7,8.7,100,0.00,,OVC015,0.59,VWS V14.01,2013-11-06 15:10:00,
2013-11-06 09:11:00,43.5,43.5,29.26,NW,312,12.3,13.6,100,0.00,,OVC015,0.59,VWS V14.01,2013-11-06 15:11:00,
2013-11-06 09:14:00,43.7,43.7,29.26,WNW,296,8.1,10.5,100,0.00,,OVC015,0.59,VWS V14.01,2013-11-06 15:14:00,
2013-11-06 09:15:00,43.7,43.7,29.26,NW,325,13.2,13.2,100,0.00,,OVC015,0.59,VWS V14.01,2013-11-06 15:15:00,
2013-11-06 09:16:00,43.7,43.7,29.26,NW,312,13.2,13.2,100,0.00,,OVC015,0.59,VWS V14.01,2013-11-06 15:16:00,
2013-11-06 09:17:00,43.7,43.7,29.26,West,280,8.7,13.2,100,0.00,,OVC015,0.59,VWS V14.01,2013-11-06 15:17:00,
2013-11-06 09:19:00,43.9,43.9,29.26,NW,308,9.6,11.0,100,0.00,,OVC015,0.59,VWS V14.01,2013-11-06 15:19:00,
2013-11-06 09:20:00,43.7,43.7,29.26,NW,315,12.3,12.3,100,0.00,,OVC015,0.59,VWS V14.01,2013-11-06 15:20:00,
2013-11-06 09:21:00,43.7,43.7,29.26,NW,316,14.5,15.4,100,0.00,,OVC015,0.59,VWS V14.01,2013-11-06 15:21:00,
2013-11-06 09:23:00,43.7,43.7,29.26,NW,320,10.1,13.2,100,0.00,,OVC015,0.59,VWS V14.01,2013-11-06 15:23:00,
2013-11-06 09:24:00,43.7,43.7,29.26,NW,314,7.6,8.1,100,0.00,,OVC015,0.59,VWS V14.01,2013-11-06 15:24:00,
2013-11-06 09:25:00,43.7,43.7,29.26,NW,315,7.6,8.1,100,0.00,,OVC015,0.59,VWS V14.01,2013-11-06 15:25:00,
2013-11-06 09:26:00,43.9,43.9,29.26,WNW,297,11.0,12.8,100,0.00,,OVC015,0.59,VWS V14.01,2013-11-06 15:26:00,
2013-11-06 09:28:00,43.3,42.3,29.26,NW,323,12.3,12.3,96,0.00,,OVC015,0.59,VWS V14.01,2013-11-06 15:28:00,
2013-11-06 09:29:00,43.3,42.3,29.26,NW,325,15.0,15.0,96,0.00,,OVC015,0.59,VWS V14.01,2013-11-06 15:29:00,
2013-11-06 09:30:00,43.3,41.2,29.26,NW,307,21.0,21.0,92,0.00,,OVC015,0.59,VWS V14.01,2013-11-06 15:30:00,
2013-11-06 09:31:00,43.3,40.6,29.26,NW,318,16.8,17.4,90,0.00,,OVC015,0.59,VWS V14.01,2013-11-06 15:31:00,
2013-11-06 09:33:00,43.0,38.5,29.26,NW,326,15.0,15.0,84,0.00,,OVC015,0.59,VWS V14.01,2013-11-06 15:33:00,
2013-11-06 09:35:00,43.2,38.0,29.26,NW,305,13.2,13.2,82,0.00,,OVC015,0.59,VWS V14.01,2013-11-06 15:35:00,
2013-11-06 09:36:00,43.2,38.0,29.26,NW,317,16.3,16.3,82,0.00,,OVC015,0.59,VWS V14.01,2013-11-06 15:36:00,
2013-11-06 09:37:00,43.0,37.2,29.26,NW,316,13.6,15.4,80,0.00,,OVC015,0.59,VWS V14.01,2013-11-06 15:37:00,
2013-11-06 09:40:00,43.0,37.2,29.29,NW,316,15.0,17.4,80,0.00,,OVC015,0.59,VWS V14.01,2013-11-06 15:40:00,
2013-11-06 09:41:00,43.0,37.2,29.29,WNW,299,8.7,12.3,80,0.00,,OVC015,0.59,VWS V14.01,2013-11-06 15:41:00,
2013-11-06 09:42:00,42.8,37.1,29.29,NW,310,16.8,16.8,80,0.00,,OVC015,0.59,VWS V14.01,2013-11-06 15:42:00,
2013-11-06 09:44:00,42.8,36.4,29.29,NW,319,11.0,18.3,78,0.00,,OVC015,0.59,VWS V14.01,2013-11-06 15:44:00,
2013-11-06 09:45:00,43.0,37.2,29.29,WNW,301,10.5,11.0,80,0.00,,OVC015,0.59,VWS V14.01,2013-11-06 15:45:00,
2013-11-06 09:47:00,43.0,37.2,29.29,NW,322,8.1,12.3,80,0.00,,OVC015,0.59,VWS V14.01,2013-11-06 15:47:00,
2013-11-06 09:49:00,43.2,37.4,29.29,NW,322,10.5,15.4,80,0.00,,OVC015,0.59,VWS V14.01,2013-11-06 15:49:00,
2013-11-06 09:52:00,42.8,36.4,29.29,NW,319,15.0,15.4,78,0.00,,OVC015,0.59,VWS V14.01,2013-11-06 15:52:00,
2013-11-06 09:53:00,42.8,36.4,29.29,NW,321,10.5,15.4,78,0.00,,OVC015,0.59,VWS V14.01,2013-11-06 15:53:00,
2013-11-06 09:54:00,42.8,36.4,29.29,NW,306,8.3,10.5,78,0.00,,OVC015,0.59,VWS V14.01,2013-11-06 15:54:00,
2013-11-06 09:55:00,42.8,36.4,29.29,NNW,331,11.0,15.0,78,0.00,,OVC015,0.59,VWS V14.01,2013-11-06 15:55:00,
2013-11-06 09:57:00,43.0,36.6,29.29,NW,319,13.2,13.2,78,0.00,,OVC015,0.59,VWS V14.01,2013-11-06 15:57:00,
2013-11-06 09:58:00,43.0,36.6,29.29,NNW,328,11.0,13.2,78,0.00,,OVC015,0.59,VWS V14.01,2013-11-06 15:58:00,
2013-11-06 09:59:00,43.2,36.8,29.29,NW,319,12.8,15.4,78,0.00,,OVC015,0.59,VWS V14.01,2013-11-06 15:59:00,
2013-11-06 10:00:00,43.2,36.8,29.29,NW,310,8.3,12.8,78,0.00,,OVC015,0.59,VWS V14.01,2013-11-06 16:00:00,
2013-11-06 10:03:00,43.3,37.0,29.29,WNW,303,7.6,11.0,78,0.00,,OVC009,0.59,VWS V14.01,2013-11-06 16:03:00,
2013-11-06 10:04:00,43.2,36.8,29.29,NW,322,8.3,12.3,78,0.00,,OVC009,0.59,VWS V14.01,2013-11-06 16:04:00,
2013-11-06 10:05:00,43.2,36.8,29.29,NW,324,8.3,11.9,78,0.00,,OVC009,0.59,VWS V14.01,2013-11-06 16:05:00,
2013-11-06 10:08:00,43.2,36.1,29.29,NW,308,10.5,10.5,76,0.00,,OVC009,0.59,VWS V14.01,2013-11-06 16:08:00,
2013-11-06 10:09:00,43.0,36.0,29.29,NW,321,11.4,11.4,76,0.00,,OVC009,0.59,VWS V14.01,2013-11-06 16:09:00,
2013-11-06 10:10:00,43.2,36.1,29.29,NW,310,12.3,12.3,76,0.00,,OVC009,0.59,VWS V14.01,2013-11-06 16:10:00,
2013-11-06 10:12:00,43.0,36.6,29.29,NW,312,14.5,14.5,78,0.00,,OVC009,0.59,VWS V14.01,2013-11-06 16:12:00,
2013-11-06 10:13:00,43.0,36.6,29.29,NNW,330,11.0,14.5,78,0.00,,OVC009,0.59,VWS V14.01,2013-11-06 16:13:00,
2013-11-06 10:14:00,43.2,36.8,29.29,NW,316,8.3,8.3,78,0.00,,OVC009,0.59,VWS V14.01,2013-11-06 16:14:00,
2013-11-06 10:15:00,43.0,36.6,29.29,WNW,284,6.3,8.3,78,0.00,,OVC009,0.59,VWS V14.01,2013-11-06 16:15:00,
2013-11-06 10:16:00,43.0,36.6,29.29,WNW,294,8.3,10.1,78,0.00,,OVC009,0.59,VWS V14.01,2013-11-06 16:16:00,
2013-11-06 10:17:00,43.0,36.6,29.29,NW,307,9.6,9.6,78,0.00,,OVC009,0.59,VWS V14.01,2013-11-06 16:17:00,
2013-11-06 10:18:00,43.0,37.2,29.29,WNW,301,10.5,12.8,80,0.00,,OVC009,0.59,VWS V14.01,2013-11-06 16:18:00,
2013-11-06 10:20:00,43.0,36.6,29.29,NW,313,8.1,10.1,78,0.00,,OVC009,0.59,VWS V14.01,2013-11-06 16:20:00,
2013-11-06 10:21:00,43.2,37.4,29.29,NW,310,5.8,10.5,80,0.00,,OVC009,0.59,VWS V14.01,2013-11-06 16:21:00,
2013-11-06 10:22:00,43.2,36.8,29.29,NW,320,10.1,10.5,78,0.00,,OVC009,0.59,VWS V14.01,2013-11-06 16:22:00,
2013-11-06 10:23:00,43.2,36.8,29.29,NW,305,8.7,10.5,78,0.00,,OVC009,0.59,VWS V14.01,2013-11-06 16:23:00,
2013-11-06 10:25:00,43.2,36.8,29.29,NNW,327,11.0,12.3,78,0.00,,OVC009,0.59,VWS V14.01,2013-11-06 16:25:00,
2013-11-06 10:26:00,43.2,36.8,29.29,NW,321,9.2,12.3,78,0.00,,OVC009,0.59,VWS V14.01,2013-11-06 16:26:00,
2013-11-06 10:27:00,43.2,36.1,29.29,NW,312,8.3,8.3,76,0.00,,OVC009,0.59,VWS V14.01,2013-11-06 16:27:00,
2013-11-06 10:28:00,43.2,36.1,29.29,NW,312,8.3,8.3,76,0.00,,OVC009,0.59,VWS V14.01,2013-11-06 16:28:00,
2013-11-06 10:29:00,43.3,37.0,29.29,NW,313,10.1,10.1,78,0.00,,OVC009,0.59,VWS V14.01,2013-11-06 16:29:00,
2013-11-06 10:31:00,43.3,36.3,29.29,NW,325,10.1,12.8,76,0.00,,OVC009,0.59,VWS V14.01,2013-11-06 16:31:00,
2013-11-06 10:33:00,43.5,37.1,29.29,NW,317,8.7,8.7,78,0.00,,OVC011,0.59,VWS V14.01,2013-11-06 16:33:00,
2013-11-06 10:34:00,43.5,36.5,29.29,WNW,302,7.6,8.3,76,0.00,,OVC011,0.59,VWS V14.01,2013-11-06 16:34:00,
2013-11-06 10:35:00,43.5,36.5,29.29,NW,311,8.1,8.7,76,0.00,,OVC011,0.59,VWS V14.01,2013-11-06 16:35:00,
2013-11-06 10:37:00,43.7,35.3,29.29,NW,315,12.8,15.0,72,0.00,,OVC011,0.59,VWS V14.01,2013-11-06 16:37:00,
2013-11-06 10:38:00,43.7,33.1,29.29,NW,311,10.5,12.8,66,0.00,,OVC011,0.59,VWS V14.01,2013-11-06 16:38:00,
2013-11-06 10:39:00,43.9,34.7,29.29,NW,324,8.7,8.7,70,0.00,,OVC011,0.59,VWS V14.01,2013-11-06 16:39:00,
2013-11-06 10:40:00,44.2,36.5,29.29,NW,305,12.8,12.8,74,0.00,,OVC011,0.59,VWS V14.01,2013-11-06 16:40:00,
2013-11-06 10:41:00,44.1,36.3,29.29,NW,308,10.5,12.3,74,0.00,,OVC011,0.59,VWS V14.01,2013-11-06 16:41:00,
2013-11-06 10:42:00,44.2,35.8,29.29,NW,320,8.3,8.3,72,0.00,,OVC011,0.59,VWS V14.01,2013-11-06 16:42:00,
2013-11-06 10:44:00,44.2,34.4,29.29,NW,313,8.3,12.3,68,0.00,,OVC011,0.59,VWS V14.01,2013-11-06 16:44:00,
2013-11-06 10:45:00,44.2,32.1,29.29,NNW,339,15.0,15.0,62,0.00,,OVC011,0.59,VWS V14.01,2013-11-06 16:45:00,
2013-11-06 10:46:00,44.2,32.1,29.29,NW,310,10.5,15.0,62,0.00,,OVC011,0.59,VWS V14.01,2013-11-06 16:46:00,
2013-11-06 10:47:00,44.6,34.0,29.29,NNW,329,10.1,11.0,66,0.00,,OVC011,0.59,VWS V14.01,2013-11-06 16:47:00,
2013-11-06 10:48:00,44.4,33.0,29.29,WNW,289,8.3,12.3,64,0.00,,OVC011,0.59,VWS V14.01,2013-11-06 16:48:00,
2013-11-06 10:49:00,44.4,32.2,29.29,NW,321,8.1,13.2,62,0.00,,OVC011,0.59,VWS V14.01,2013-11-06 16:49:00,
2013-11-06 10:50:00,44.6,31.6,29.29,NW,311,9.6,12.8,60,0.00,,OVC011,0.59,VWS V14.01,2013-11-06 16:50:00,
2013-11-06 10:51:00,44.4,32.2,29.29,NW,322,8.1,9.2,62,0.00,,OVC011,0.59,VWS V14.01,2013-11-06 16:51:00,
2013-11-06 10:52:00,44.6,31.6,29.29,NW,308,8.1,10.5,60,0.00,,OVC011,0.59,VWS V14.01,2013-11-06 16:52:00,
2013-11-06 10:54:00,44.6,31.6,29.32,WNW,299,9.2,9.2,60,0.00,,OVC011,0.59,VWS V14.01,2013-11-06 16:54:00,
2013-11-06 10:55:00,44.8,31.8,29.32,NW,324,10.5,10.5,60,0.00,,OVC011,0.59,VWS V14.01,2013-11-06 16:55:00,
2013-11-06 10:56:00,44.6,31.6,29.32,NNW,329,8.3,11.0,60,0.00,,OVC011,0.59,VWS V14.01,2013-11-06 16:56:00,
2013-11-06 10:57:00,44.6,31.6,29.32,NNW,337,10.1,10.1,60,0.00,,OVC011,0.59,VWS V14.01,2013-11-06 16:57:00,
2013-11-06 10:59:00,44.8,32.6,29.32,NW,320,8.1,8.1,62,0.00,,OVC011,0.59,VWS V14.01,2013-11-06 16:59:00,
2013-11-06 11:00:00,44.8,33.4,29.32,NW,322,11.0,11.0,64,0.00,,OVC011,0.59,VWS V14.01,2013-11-06 17:00:00,
2013-11-06 11:01:00,44.6,31.6,29.32,NW,318,13.2,13.2,60,0.00,,OVC011,0.59,VWS V14.01,2013-11-06 17:01:00,
2013-11-06 11:03:00,44.6,30.8,29.32,NNW,328,8.7,11.0,58,0.00,,OVC011,0.59,VWS V14.01,2013-11-06 17:03:00,
2013-11-06 11:04:00,44.8,31.8,29.32,NW,321,8.7,10.1,60,0.00,,OVC011,0.59,VWS V14.01,2013-11-06 17:04:00,
2013-11-06 11:06:00,44.4,31.4,29.32,NW,318,10.1,13.2,60,0.00,,OVC011,0.59,VWS V14.01,2013-11-06 17:06:00,
2013-11-06 11:07:00,44.8,31.8,29.32,NW,326,7.6,13.2,60,0.00,,OVC011,0.59,VWS V14.01,2013-11-06 17:07:00,
2013-11-06 11:08:00,44.8,32.6,29.32,NNW,328,10.1,11.4,62,0.00,,OVC011,0.59,VWS V14.01,2013-11-06 17:08:00,
2013-11-06 11:10:00,44.8,32.6,29.29,NW,324,8.1,10.1,62,0.00,,OVC011,0.59,VWS V14.01,2013-11-06 17:10:00,
2013-11-06 11:11:00,44.8,33.4,29.29,NW,325,10.5,10.5,64,0.00,,OVC011,0.59,VWS V14.01,2013-11-06 17:11:00,
2013-11-06 11:12:00,44.6,31.6,29.29,NW,318,15.4,15.4,60,0.00,,OVC011,0.59,VWS V14.01,2013-11-06 17:12:00,
2013-11-06 11:13:00,44.6,30.8,29.29,NW,322,15.0,16.8,58,0.00,,OVC011,0.59,VWS V14.01,2013-11-06 17:13:00,
2013-11-06 11:15:00,44.8,30.9,29.29,NW,322,8.1,12.8,58,0.00,,OVC011,0.59,VWS V14.01,2013-11-06 17:15:00,
2013-11-06 11:16:00,44.4,30.6,29.29,NNW,333,11.0,11.0,58,0.00,,OVC011,0.59,VWS V14.01,2013-11-06 17:16:00,
2013-11-06 11:17:00,44.6,29.9,29.29,NW,319,12.8,13.6,56,0.00,,OVC011,0.59,VWS V14.01,2013-11-06 17:17:00,
2013-11-06 11:18:00,44.6,29.9,29.29,NW,317,12.8,15.0,56,0.00,,OVC011,0.59,VWS V14.01,2013-11-06 17:18:00,
2013-11-06 11:21:00,44.6,29.9,29.29,NNW,327,15.0,15.0,56,0.00,,OVC011,0.59,VWS V14.01,2013-11-06 17:21:00,
2013-11-06 11:22:00,44.4,29.7,29.29,NW,320,10.5,13.2,56,0.00,,OVC011,0.59,VWS V14.01,2013-11-06 17:22:00,
2013-11-06 11:24:00,44.6,29.9,29.29,NW,312,12.8,14.1,56,0.00,,OVC011,0.59,VWS V14.01,2013-11-06 17:24:00,
2013-11-06 11:26:00,44.6,30.8,29.32,NW,324,8.7,8.7,58,0.00,,OVC011,0.59,VWS V14.01,2013-11-06 17:26:00,
2013-11-06 11:27:00,44.2,30.4,29.32,NW,326,11.0,11.0,58,0.00,,OVC011,0.59,VWS V14.01,2013-11-06 17:27:00,
2013-11-06 11:28:00,44.2,30.4,29.32,NW,321,11.0,11.0,58,0.00,,OVC011,0.59,VWS V14.01,2013-11-06 17:28:00,
2013-11-06 11:29:00,44.4,31.4,29.32,NW,324,12.3,12.8,60,0.00,,OVC011,0.59,VWS V14.01,2013-11-06 17:29:00,
2013-11-06 11:30:00,44.2,31.2,29.32,NW,324,8.7,11.0,60,0.00,,OVC011,0.59,VWS V14.01,2013-11-06 17:30:00,
2013-11-06 11:31:00,44.2,32.1,29.32,NW,312,10.1,10.1,62,0.00,,OVC011,0.59,VWS V14.01,2013-11-06 17:31:00,
2013-11-06 11:33:00,44.2,32.8,29.32,NW,325,11.9,13.2,64,0.00,,OVC011,0.59,VWS V14.01,2013-11-06 17:33:00,
2013-11-06 11:35:00,44.1,31.9,29.32,NW,309,10.1,13.2,62,0.00,,OVC011,0.59,VWS V14.01,2013-11-06 17:35:00,
2013-11-06 11:36:00,44.1,31.9,29.32,NNW,334,12.8,13.2,62,0.00,,OVC011,0.59,VWS V14.01,2013-11-06 17:36:00,
2013-11-06 11:37:00,44.1,31.9,29.32,NW,321,10.5,15.4,62,0.00,,OVC011,0.59,VWS V14.01,2013-11-06 17:37:00,
2013-11-06 11:38:00,44.1,31.9,29.32,NW,326,12.8,15.0,62,0.00,,OVC011,0.59,VWS V14.01,2013-11-06 17:38:00,
2013-11-06 11:40:00,44.1,30.2,29.32,NW,312,15.4,15.4,58,0.00,,OVC011,0.59,VWS V14.01,2013-11-06 17:40:00,
2013-11-06 11:41:00,44.2,30.4,29.32,NW,313,13.6,15.0,58,0.00,,OVC011,0.59,VWS V14.01,2013-11-06 17:41:00,
2013-11-06 11:42:00,44.2,30.4,29.32,NW,307,12.8,17.0,58,0.00,,OVC011,0.59,VWS V14.01,2013-11-06 17:42:00,
2013-11-06 11:43:00,44.2,30.4,29.32,WNW,303,10.5,12.8,58,0.00,,OVC011,0.59,VWS V14.01,2013-11-06 17:43:00,
2013-11-06 11:45:00,44.8,31.8,29.32,NW,318,10.5,13.2,60,0.00,,OVC011,0.59,VWS V14.01,2013-11-06 17:45:00,
2013-11-06 11:46:00,45.0,31.9,29.32,NW,311,8.7,13.2,60,0.00,,OVC011,0.59,VWS V14.01,2013-11-06 17:46:00,
2013-11-06 11:47:00,45.0,32.7,29.32,NW,316,10.5,10.5,62,0.00,,OVC011,0.59,VWS V14.01,2013-11-06 17:47:00,
2013-11-06 11:49:00,44.6,29.9,29.32,NW,322,11.0,15.4,56,0.00,,OVC011,0.59,VWS V14.01,2013-11-06 17:49:00,
2013-11-06 11:50:00,44.6,29.9,29.32,NW,315,10.5,13.2,56,0.00,,OVC011,0.59,VWS V14.01,2013-11-06 17:50:00,
2013-11-06 11:51:00,44.2,29.5,29.32,NW,315,13.2,18.8,56,0.00,,OVC011,0.59,VWS V14.01,2013-11-06 17:51:00,
2013-11-06 11:53:00,44.2,29.5,29.32,NNW,340,17.4,17.4,56,0.00,,OVC011,0.59,VWS V14.01,2013-11-06 17:53:00,
2013-11-06 11:54:00,44.2,29.5,29.32,NW,319,12.3,13.2,56,0.00,,OVC011,0.59,VWS V14.01,2013-11-06 17:54:00,
2013-11-06 11:55:00,44.2,30.4,29.32,NW,312,13.2,13.2,58,0.00,,OVC011,0.59,VWS V14.01,2013-11-06 17:55:00,
2013-11-06 11:57:00,43.9,29.2,29.32,NW,315,15.4,17.0,56,0.00,,OVC011,0.59,VWS V14.01,2013-11-06 17:57:00,
2013-11-06 11:58:00,43.9,29.2,29.32,NW,322,10.5,15.4,56,0.00,,OVC011,0.59,VWS V14.01,2013-11-06 17:58:00,
2013-11-06 11:59:00,43.7,29.0,29.32,NNW,332,12.8,14.1,56,0.00,,OVC011,0.59,VWS V14.01,2013-11-06 17:59:00,
2013-11-06 12:00:00,43.7,29.0,29.32,NNW,338,13.2,13.2,56,0.00,,OVC011,0.59,VWS V14.01,2013-11-06 18:00:00,
2013-11-06 12:01:00,43.7,29.0,29.32,NNW,328,11.4,15.0,56,0.00,,OVC011,0.59,VWS V14.01,2013-11-06 18:01:00,
2013-11-06 12:03:00,43.9,30.9,29.32,NW,308,11.9,15.4,60,0.00,,OVC021,0.59,VWS V14.01,2013-11-06 18:03:00,
2013-11-06 12:04:00,43.7,30.7,29.32,NW,313,15.0,17.4,60,0.00,,OVC021,0.59,VWS V14.01,2013-11-06 18:04:00,
2013-11-06 12:05:00,43.7,30.7,29.32,NNW,327,10.5,17.4,60,0.00,,OVC021,0.59,VWS V14.01,2013-11-06 18:05:00,
2013-11-06 12:06:00,43.7,30.7,29.32,NW,305,13.2,13.2,60,0.00,,OVC021,0.59,VWS V14.01,2013-11-06 18:06:00,
2013-11-06 12:08:00,43.7,31.5,29.32,WNW,293,13.6,13.6,62,0.00,,OVC021,0.59,VWS V14.01,2013-11-06 18:08:00,
2013-11-06 12:09:00,43.7,31.5,29.32,NW,311,11.0,13.6,62,0.00,,OVC021,0.59,VWS V14.01,2013-11-06 18:09:00,
2013-11-06 12:10:00,43.5,31.4,29.32,NNW,340,12.8,15.4,62,0.00,,OVC021,0.59,VWS V14.01,2013-11-06 18:10:00,
2013-11-06 12:12:00,43.5,31.4,29.32,NW,312,10.5,10.5,62,0.00,,OVC021,0.59,VWS V14.01,2013-11-06 18:12:00,
2013-11-06 12:13:00,43.5,31.4,29.32,NW,315,8.3,8.3,62,0.00,,OVC021,0.59,VWS V14.01,2013-11-06 18:13:00,
2013-11-06 12:14:00,43.5,31.4,29.32,WNW,299,8.3,8.7,62,0.00,,OVC021,0.59,VWS V14.01,2013-11-06 18:14:00,
2013-11-06 12:18:00,43.5,31.4,29.32,NNW,332,12.8,13.2,62,0.00,,OVC021,0.59,VWS V14.01,2013-11-06 18:18:00,
2013-11-06 12:20:00,43.5,32.2,29.32,NNW,327,11.9,11.9,64,0.00,,OVC021,0.59,VWS V14.01,2013-11-06 18:20:00,
2013-11-06 12:23:00,43.5,31.4,29.32,NW,317,7.2,12.3,62,0.00,,OVC021,0.59,VWS V14.01,2013-11-06 18:23:00,
2013-11-06 12:24:00,43.5,32.9,29.32,NW,317,7.6,8.7,66,0.00,,OVC021,0.59,VWS V14.01,2013-11-06 18:24:00,
2013-11-06 12:26:00,43.5,32.9,29.32,North,350,5.8,8.1,66,0.00,,OVC021,0.59,VWS V14.01,2013-11-06 18:26:00,
2013-11-06 12:27:00,43.7,33.1,29.32,NW,322,8.7,11.0,66,0.00,,OVC021,0.59,VWS V14.01,2013-11-06 18:27:00,
2013-11-06 12:28:00,43.7,33.1,29.32,WNW,302,6.3,9.2,66,0.00,,OVC021,0.59,VWS V14.01,2013-11-06 18:28:00,
2013-11-06 12:29:00,43.7,33.1,29.32,NW,326,9.2,9.2,66,0.00,,OVC021,0.59,VWS V14.01,2013-11-06 18:29:00,
2013-11-06 12:30:00,43.7,33.8,29.32,WNW,282,8.3,10.1,68,0.00,,OVC021,0.59,VWS V14.01,2013-11-06 18:30:00,
2013-11-06 12:32:00,43.7,31.5,29.32,NNW,332,8.3,12.8,62,0.00,,OVC021,0.59,VWS V14.01,2013-11-06 18:32:00,
2013-11-06 12:33:00,43.9,30.9,29.32,NNW,327,8.7,8.7,60,0.00,,OVC021,0.59,VWS V14.01,2013-11-06 18:33:00,
2013-11-06 12:34:00,43.9,30.9,29.32,NW,324,10.1,10.1,60,0.00,,OVC021,0.59,VWS V14.01,2013-11-06 18:34:00,
2013-11-06 12:35:00,44.1,30.2,29.32,NNW,342,7.6,12.8,58,0.00,,OVC021,0.59,VWS V14.01,2013-11-06 18:35:00,
2013-11-06 12:36:00,44.2,30.4,29.32,NW,321,13.2,13.2,58,0.00,,OVC021,0.59,VWS V14.01,2013-11-06 18:36:00,
2013-11-06 12:37:00,44.1,29.4,29.32,North,353,10.1,13.2,56,0.00,,OVC021,0.59,VWS V14.01,2013-11-06 18:37:00,
2013-11-06 12:38:00,44.6,29.9,29.32,NNW,328,8.1,8.1,56,0.00,,OVC021,0.59,VWS V14.01,2013-11-06 18:38:00,
2013-11-06 12:39:00,44.6,29.9,29.32,NW,310,8.7,10.1,56,0.00,,OVC021,0.59,VWS V14.01,2013-11-06 18:39:00,
2013-11-06 12:41:00,44.8,30.1,29.32,NNW,334,11.0,12.8,56,0.00,,OVC021,0.59,VWS V14.01,2013-11-06 18:41:00,
2013-11-06 12:44:00,44.8,29.2,29.32,NW,316,11.0,12.8,54,0.00,,OVC021,0.59,VWS V14.01,2013-11-06 18:44:00,
2013-11-06 12:45:00,44.6,27.1,29.32,NW,318,13.2,13.2,50,0.00,,OVC021,0.59,VWS V14.01,2013-11-06 18:45:00,
2013-11-06 12:46:00,44.6,27.1,29.32,NW,324,12.3,12.8,50,0.00,,OVC021,0.59,VWS V14.01,2013-11-06 18:46:00,
2013-11-06 12:47:00,44.8,27.3,29.32,NW,325,8.3,8.3,50,0.00,,OVC021,0.59,VWS V14.01,2013-11-06 18:47:00,
2013-11-06 12:49:00,45.0,30.2,29.32,NW,326,5.4,8.3,56,0.00,,OVC021,0.59,VWS V14.01,2013-11-06 18:49:00,
2013-11-06 12:50:00,45.0,30.2,29.32,NNW,333,8.3,8.7,56,0.00,,OVC021,0.59,VWS V14.01,2013-11-06 18:50:00,
2013-11-06 12:51:00,45.0,29.3,29.32,NNW,337,10.5,10.5,54,0.00,,OVC021,0.59,VWS V14.01,2013-11-06 18:51:00,
2013-11-06 12:52:00,45.1,29.5,29.32,NW,314,6.3,10.5,54,0.00,,OVC021,0.59,VWS V14.01,2013-11-06 18:52:00,
2013-11-06 12:55:00,45.1,29.5,29.35,NW,320,8.3,8.7,54,0.00,,OVC021,0.59,VWS V14.01,2013-11-06 18:55:00,
2013-11-06 12:56:00,45.3,29.7,29.35,NW,320,8.7,8.7,54,0.00,,OVC021,0.59,VWS V14.01,2013-11-06 18:56:00,
2013-11-06 12:57:00,45.0,27.5,29.35,NW,316,12.3,12.8,50,0.00,,OVC021,0.59,VWS V14.01,2013-11-06 18:57:00,
2013-11-06 12:58:00,45.1,24.5,29.35,NW,322,8.3,8.3,44,0.00,,OVC021,0.59,VWS V14.01,2013-11-06 18:58:00,
2013-11-06 13:00:00,45.3,27.8,29.35,NW,323,10.5,10.5,50,0.00,,OVC021,0.59,VWS V14.01,2013-11-06 19:00:00,
2013-11-06 13:02:00,45.3,27.8,29.35,NW,313,8.7,13.2,50,0.00,,OVC021,0.59,VWS V14.01,2013-11-06 19:02:00,
2013-11-06 13:03:00,45.3,24.7,29.35,NW,317,8.1,8.1,44,0.00,,OVC022,0.59,VWS V14.01,2013-11-06 19:03:00,
2013-11-06 13:04:00,45.5,28.0,29.35,NNW,331,12.3,12.3,50,0.00,,OVC022,0.59,VWS V14.01,2013-11-06 19:04:00,
2013-11-06 13:05:00,45.5,29.8,29.35,NNW,329,7.6,10.5,54,0.00,,OVC022,0.59,VWS V14.01,2013-11-06 19:05:00,
2013-11-06 13:07:00,45.1,24.5,29.35,NW,310,12.3,12.3,44,0.00,,OVC022,0.59,VWS V14.01,2013-11-06 19:07:00,
2013-11-06 13:08:00,45.3,27.8,29.35,NNW,329,8.7,12.3,50,0.00,,OVC022,0.59,VWS V14.01,2013-11-06 19:08:00,
2013-11-06 13:09:00,45.3,27.8,29.35,NNW,327,10.1,10.5,50,0.00,,OVC022,0.59,VWS V14.01,2013-11-06 19:09:00,
2013-11-06 13:11:00,45.3,27.8,29.32,NW,317,8.1,8.7,50,0.00,,OVC022,0.59,VWS V14.01,2013-11-06 19:11:00,
2013-11-06 13:12:00,45.3,27.8,29.32,NW,320,7.6,8.7,50,0.00,,OVC022,0.59,VWS V14.01,2013-11-06 19:12:00,
2013-11-06 13:13:00,45.5,29.8,29.32,NNW,337,5.4,8.3,54,0.00,,OVC022,0.59,VWS V14.01,2013-11-06 19:13:00,
2013-11-06 13:14:00,45.5,30.7,29.32,NW,313,11.4,11.4,56,0.00,,OVC022,0.59,VWS V14.01,2013-11-06 19:14:00,
2013-11-06 13:17:00,45.3,24.7,29.32,NW,313,12.8,12.8,44,0.00,,OVC022,0.59,VWS V14.01,2013-11-06 19:17:00,
2013-11-06 13:18:00,45.1,24.5,29.32,NW,313,10.5,16.8,44,0.00,,OVC022,0.59,VWS V14.01,2013-11-06 19:18:00,
2013-11-06 13:19:00,45.3,24.7,29.32,NW,307,12.3,12.3,44,0.00,,OVC022,0.59,VWS V14.01,2013-11-06 19:19:00,
2013-11-06 13:20:00,45.1,24.5,29.32,NW,311,11.4,15.4,44,0.00,,OVC022,0.59,VWS V14.01,2013-11-06 19:20:00,
2013-11-06 13:23:00,45.1,24.5,29.32,NNW,327,8.3,10.5,44,0.00,,OVC022,0.59,VWS V14.01,2013-11-06 19:23:00,
2013-11-06 13:24:00,45.1,27.6,29.35,NW,312,8.1,8.3,50,0.00,,OVC022,0.59,VWS V14.01,2013-11-06 19:24:00,
2013-11-06 13:25:00,45.0,24.4,29.35,NW,321,16.3,16.3,44,0.00,,OVC022,0.59,VWS V14.01,2013-11-06 19:25:00,
2013-11-06 13:28:00,44.8,24.2,29.35,NW,313,8.3,17.4,44,0.00,,OVC022,0.59,VWS V14.01,2013-11-06 19:28:00,
2013-11-06 13:29:00,44.8,24.2,29.35,NW,319,13.2,13.6,44,0.00,,OVC022,0.59,VWS V14.01,2013-11-06 19:29:00,
2013-11-06 13:30:00,44.8,24.2,29.35,NW,307,12.3,13.2,44,0.00,,OVC022,0.59,VWS V14.01,2013-11-06 19:30:00,
2013-11-06 13:33:00,44.8,24.2,29.35,WNW,303,8.3,15.4,44,0.00,,OVC022,0.59,VWS V14.01,2013-11-06 19:33:00,
2013-11-06 13:34:00,44.8,27.3,29.35,NW,324,11.0,11.0,50,0.00,,OVC022,0.59,VWS V14.01,2013-11-06 19:34:00,
2013-11-06 13:35:00,45.0,27.5,29.35,NW,309,11.9,11.9,50,0.00,,OVC022,0.59,VWS V14.01,2013-11-06 19:35:00,
2013-11-06 13:36:00,44.8,24.2,29.35,NW,316,13.2,15.0,44,0.00,,OVC022,0.59,VWS V14.01,2013-11-06 19:36:00,
2013-11-06 13:38:00,45.0,27.5,29.35,NW,314,14.1,14.1,50,0.00,,OVC022,0.59,VWS V14.01,2013-11-06 19:38:00,
2013-11-06 13:39:00,44.8,24.2,29.35,NW,312,12.3,17.4,44,0.00,,OVC022,0.59,VWS V14.01,2013-11-06 19:39:00,
2013-11-06 13:40:00,45.0,27.5,29.35,NNW,343,11.0,17.4,50,0.00,,OVC022,0.59,VWS V14.01,2013-11-06 19:40:00,
2013-11-06 13:41:00,44.8,24.2,29.35,NNW,329,8.3,11.0,44,0.00,,OVC022,0.59,VWS V14.01,2013-11-06 19:41:00,
2013-11-06 13:42:00,44.8,24.2,29.35,NNW,343,15.0,15.0,44,0.00,,OVC022,0.59,VWS V14.01,2013-11-06 19:42:00,
2013-11-06 13:43:00,45.0,24.4,29.35,NW,326,12.8,15.0,44,0.00,,OVC022,0.59,VWS V14.01,2013-11-06 19:43:00,
2013-11-06 13:44:00,45.1,24.5,29.35,NW,309,13.2,13.2,44,0.00,,OVC022,0.59,VWS V14.01,2013-11-06 19:44:00,
2013-11-06 13:45:00,45.1,24.5,29.35,NNW,334,11.0,13.2,44,0.00,,OVC022,0.59,VWS V14.01,2013-11-06 19:45:00,
2013-11-06 13:46:00,45.1,24.5,29.35,NNW,339,10.1,12.3,44,0.00,,OVC022,0.59,VWS V14.01,2013-11-06 19:46:00,
2013-11-06 13:47:00,45.1,24.5,29.35,North,357,10.5,11.0,44,0.00,,OVC022,0.59,VWS V14.01,2013-11-06 19:47:00,
2013-11-06 13:48:00,45.1,24.5,29.35,NNW,339,11.4,11.4,44,0.00,,OVC022,0.59,VWS V14.01,2013-11-06 19:48:00,
2013-11-06 13:50:00,45.5,24.9,29.35,NNW,329,8.3,10.5,44,0.00,,OVC022,0.59,VWS V14.01,2013-11-06 19:50:00,
2013-11-06 13:51:00,45.5,24.9,29.35,NW,320,8.3,8.7,44,0.00,,OVC022,0.59,VWS V14.01,2013-11-06 19:51:00,
2013-11-06 13:53:00,45.5,24.9,29.35,NW,319,12.8,12.8,44,0.00,,OVC022,0.59,VWS V14.01,2013-11-06 19:53:00,
2013-11-06 13:54:00,45.5,22.6,29.35,NNW,332,13.2,13.6,40,0.00,,OVC022,0.59,VWS V14.01,2013-11-06 19:54:00,
2013-11-06 13:55:00,45.7,25.0,29.35,NNW,328,12.8,12.8,44,0.00,,OVC022,0.59,VWS V14.01,2013-11-06 19:55:00,
2013-11-06 13:56:00,45.5,22.6,29.35,NNW,330,11.9,14.5,40,0.00,,OVC022,0.59,VWS V14.01,2013-11-06 19:56:00,
2013-11-06 13:58:00,45.5,24.9,29.35,NW,319,8.7,8.7,44,0.00,,OVC022,0.59,VWS V14.01,2013-11-06 19:58:00,
2013-11-06 13:59:00,45.5,24.9,29.35,NW,318,11.9,11.9,44,0.00,,OVC022,0.59,VWS V14.01,2013-11-06 19:59:00,
2013-11-06 14:00:00,45.5,24.9,29.35,WNW,295,10.5,10.5,44,0.00,,OVC022,0.59,VWS V14.01,2013-11-06 20:00:00,
2013-11-06 14:01:00,45.3,24.7,29.35,NW,319,7.6,10.5,44,0.00,,OVC022,0.59,VWS V14.01,2013-11-06 20:01:00,
2013-11-06 14:02:00,45.5,24.9,29.35,NW,306,7.6,8.7,44,0.00,,OVC028,0.59,VWS V14.01,2013-11-06 20:02:00,
2013-11-06 14:03:00,45.1,24.5,29.35,NW,320,10.5,15.0,44,0.00,,OVC028,0.59,VWS V14.01,2013-11-06 20:03:00,
2013-11-06 14:04:00,45.0,24.4,29.35,NW,315,13.2,13.2,44,0.00,,OVC028,0.59,VWS V14.01,2013-11-06 20:04:00,
2013-11-06 14:05:00,44.8,24.2,29.35,NW,305,12.8,13.2,44,0.00,,OVC028,0.59,VWS V14.01,2013-11-06 20:05:00,
2013-11-06 14:06:00,44.6,24.0,29.35,NW,322,12.8,14.1,44,0.00,,OVC028,0.59,VWS V14.01,2013-11-06 20:06:00,
2013-11-06 14:07:00,44.6,24.0,29.35,NW,311,8.7,13.2,44,0.00,,OVC028,0.59,VWS V14.01,2013-11-06 20:07:00,
2013-11-06 14:08:00,44.6,24.0,29.35,NW,312,7.6,13.2,44,0.00,,OVC028,0.59,VWS V14.01,2013-11-06 20:08:00,
2013-11-06 14:10:00,44.6,24.0,29.35,NW,318,15.0,16.3,44,0.00,,OVC028,0.59,VWS V14.01,2013-11-06 20:10:00,
2013-11-06 14:11:00,44.4,25.0,29.35,NW,326,14.5,15.4,46,0.00,,OVC028,0.59,VWS V14.01,2013-11-06 20:11:00,
2013-11-06 14:12:00,44.4,25.0,29.35,NNW,327,11.4,11.4,46,0.00,,OVC028,0.59,VWS V14.01,2013-11-06 20:12:00,
2013-11-06 14:14:00,44.6,24.0,29.35,NW,317,8.7,11.0,44,0.00,,OVC028,0.59,VWS V14.01,2013-11-06 20:14:00,
2013-11-06 14:16:00,44.6,27.1,29.35,NNW,338,8.1,8.3,50,0.00,,OVC028,0.59,VWS V14.01,2013-11-06 20:16:00,
2013-11-06 14:17:00,44.8,27.3,29.35,NW,309,10.5,10.5,50,0.00,,OVC028,0.59,VWS V14.01,2013-11-06 20:17:00,
2013-11-06 14:18:00,44.6,24.0,29.35,NW,322,8.7,11.0,44,0.00,,OVC028,0.59,VWS V14.01,2013-11-06 20:18:00,
2013-11-06 14:20:00,45.0,24.4,29.35,NW,313,13.2,13.2,44,0.00,,OVC028,0.59,VWS V14.01,2013-11-06 20:20:00,
2013-11-06 14:22:00,45.1,24.5,29.35,West,264,8.7,10.5,44,0.00,,OVC028,0.59,VWS V14.01,2013-11-06 20:22:00,
2013-11-06 14:23:00,45.0,24.4,29.35,NW,321,8.7,10.1,44,0.00,,OVC028,0.59,VWS V14.01,2013-11-06 20:23:00,
2013-11-06 14:24:00,45.1,24.5,29.38,NW,316,8.1,8.1,44,0.00,,OVC028,0.59,VWS V14.01,2013-11-06 20:24:00,
2013-11-06 14:25:00,45.1,24.5,29.38,NNW,329,8.3,9.6,44,0.00,,OVC028,0.59,VWS V14.01,2013-11-06 20:25:00,
2013-11-06 14:26:00,45.1,24.5,29.38,NW,309,8.3,8.3,44,0.00,,OVC028,0.59,VWS V14.01,2013-11-06 20:26:00,
2013-11-06 14:27:00,45.1,24.5,29.38,NW,317,8.3,8.3,44,0.00,,OVC028,0.59,VWS V14.01,2013-11-06 20:27:00,
2013-11-06 14:28:00,45.3,24.7,29.38,NNW,330,8.7,8.7,44,0.00,,OVC028,0.59,VWS V14.01,2013-11-06 20:28:00,
2013-11-06 14:29:00,45.1,24.5,29.38,NW,312,8.3,10.5,44,0.00,,OVC028,0.59,VWS V14.01,2013-11-06 20:29:00,
2013-11-06 14:31:00,45.1,24.5,29.38,NW,319,8.1,8.7,44,0.00,,OVC028,0.59,VWS V14.01,2013-11-06 20:31:00,
2013-11-06 14:33:00,45.3,24.7,29.38,NW,323,7.6,7.6,44,0.00,,OVC028,0.59,VWS V14.01,2013-11-06 20:33:00,
2013-11-06 14:34:00,45.3,24.7,29.38,NW,308,5.4,11.0,44,0.00,,OVC028,0.59,VWS V14.01,2013-11-06 20:34:00,
2013-11-06 14:35:00,45.3,22.4,29.38,NW,314,9.2,10.1,40,0.00,,OVC028,0.59,VWS V14.01,2013-11-06 20:35:00,
2013-11-06 14:36:00,45.3,22.4,29.38,NNW,332,10.5,10.5,40,0.00,,OVC028,0.59,VWS V14.01,2013-11-06 20:36:00,
2013-11-06 14:38:00,45.3,22.4,29.38,NW,309,8.7,12.3,40,0.00,,OVC028,0.59,VWS V14.01,2013-11-06 20:38:00,
2013-11-06 14:40:00,45.5,22.6,29.38,NW,313,8.7,11.9,40,0.00,,OVC028,0.59,VWS V14.01,2013-11-06 20:40:00,
2013-11-06 14:41:00,45.3,22.4,29.38,NNW,338,12.8,12.8,40,0.00,,OVC028,0.59,VWS V14.01,2013-11-06 20:41:00,
2013-11-06 14:42:00,45.5,22.6,29.38,NW,314,10.5,12.8,40,0.00,,OVC028,0.59,VWS V14.01,2013-11-06 20:42:00,
2013-11-06 14:44:00,45.7,22.8,29.38,NNW,334,7.6,11.0,40,0.00,,OVC028,0.59,VWS V14.01,2013-11-06 20:44:00,
2013-11-06 14:45:00,45.9,22.9,29.38,NNW,331,7.6,10.1,40,0.00,,OVC028,0.59,VWS V14.01,2013-11-06 20:45:00,
2013-11-06 14:46:00,45.9,22.9,29.38,NW,318,8.7,8.7,40,0.00,,OVC028,0.59,VWS V14.01,2013-11-06 20:46:00,
2013-11-06 14:47:00,45.9,22.9,29.38,NW,318,8.7,8.7,40,0.00,,OVC028,0.59,VWS V14.01,2013-11-06 20:47:00,
2013-11-06 14:49:00,46.0,23.1,29.38,NW,306,6.3,8.7,40,0.00,,OVC028,0.59,VWS V14.01,2013-11-06 20:49:00,
2013-11-06 14:50:00,45.9,22.9,29.38,NW,312,8.7,8.7,40,0.00,,OVC028,0.59,VWS V14.01,2013-11-06 20:50:00,
2013-11-06 14:51:00,46.0,23.1,29.38,NW,322,7.2,8.7,40,0.00,,OVC028,0.59,VWS V14.01,2013-11-06 20:51:00,
2013-11-06 14:52:00,45.9,22.9,29.38,NW,326,11.0,11.0,40,0.00,,OVC028,0.59,VWS V14.01,2013-11-06 20:52:00,
2013-11-06 14:54:00,45.7,22.8,29.38,NW,317,11.0,13.2,40,0.00,,OVC028,0.59,VWS V14.01,2013-11-06 20:54:00,
2013-11-06 14:56:00,45.7,22.8,29.38,WNW,295,6.3,6.3,40,0.00,,OVC028,0.59,VWS V14.01,2013-11-06 20:56:00,
2013-11-06 14:57:00,45.7,22.8,29.38,NW,318,6.7,6.7,40,0.00,,OVC028,0.59,VWS V14.01,2013-11-06 20:57:00,
2013-11-06 14:58:00,45.7,22.8,29.38,NNW,327,10.5,10.5,40,0.00,,OVC028,0.59,VWS V14.01,2013-11-06 20:58:00,
2013-11-06 14:59:00,45.7,22.8,29.38,NW,325,10.5,10.5,40,0.00,,OVC028,0.59,VWS V14.01,2013-11-06 20:59:00,
2013-11-06 15:00:00,45.9,22.9,29.38,West,280,9.2,11.0,40,0.00,,OVC028,0.59,VWS V14.01,2013-11-06 21:00:00,
2013-11-06 15:03:00,45.9,22.9,29.38,NW,312,5.8,6.3,40,0.00,,OVC027,0.59,VWS V14.01,2013-11-06 21:03:00,
2013-11-06 15:04:00,46.0,23.1,29.38,WSW,256,3.6,5.4,40,0.00,,OVC027,0.59,VWS V14.01,2013-11-06 21:04:00,
2013-11-06 15:05:00,46.0,23.1,29.38,West,274,8.3,8.3,40,0.00,,OVC027,0.59,VWS V14.01,2013-11-06 21:05:00,
2013-11-06 15:06:00,45.9,22.9,29.38,NW,306,6.3,8.3,40,0.00,,OVC027,0.59,VWS V14.01,2013-11-06 21:06:00,
2013-11-06 15:08:00,46.0,23.1,29.38,NNW,332,4.0,7.6,40,0.00,,OVC027,0.59,VWS V14.01,2013-11-06 21:08:00,
2013-11-06 15:10:00,46.2,23.2,29.38,NW,324,8.3,10.5,40,0.00,,OVC027,0.59,VWS V14.01,2013-11-06 21:10:00,
2013-11-06 15:11:00,46.8,26.0,29.38,NW,306,4.0,5.4,44,0.00,,OVC027,0.59,VWS V14.01,2013-11-06 21:11:00,
2013-11-06 15:13:00,46.6,22.4,29.38,NNW,332,5.4,5.8,38,0.00,,OVC027,0.59,VWS V14.01,2013-11-06 21:13:00,
2013-11-06 15:14:00,46.8,22.5,29.38,WNW,300,4.9,6.3,38,0.00,,OVC027,0.59,VWS V14.01,2013-11-06 21:14:00,
2013-11-06 15:15:00,46.6,22.4,29.38,NW,305,8.3,8.3,38,0.00,,OVC027,0.59,VWS V14.01,2013-11-06 21:15:00,
2013-11-06 15:16:00,46.4,22.2,29.38,WNW,289,6.3,8.3,38,0.00,,OVC027,0.59,VWS V14.01,2013-11-06 21:16:00,
2013-11-06 15:17:00,46.2,23.2,29.38,NW,315,7.6,7.6,40,0.00,,OVC027,0.59,VWS V14.01,2013-11-06 21:17:00,
2013-11-06 15:18:00,46.2,23.2,29.38,WNW,288,4.0,7.6,40,0.00,,OVC027,0.59,VWS V14.01,2013-11-06 21:18:00,
2013-11-06 15:19:00,46.2,23.2,29.38,NW,307,4.0,5.8,40,0.00,,OVC027,0.59,VWS V14.01,2013-11-06 21:19:00,
2013-11-06 15:21:00,46.0,23.1,29.38,WNW,282,3.6,6.3,40,0.00,,OVC027,0.59,VWS V14.01,2013-11-06 21:21:00,
2013-11-06 15:22:00,46.0,23.1,29.38,WNW,299,6.3,6.3,40,0.00,,OVC027,0.59,VWS V14.01,2013-11-06 21:22:00,
2013-11-06 15:23:00,46.0,23.1,29.38,NW,318,4.0,5.4,40,0.00,,OVC027,0.59,VWS V14.01,2013-11-06 21:23:00,
2013-11-06 15:24:00,45.9,22.9,29.38,West,271,6.3,8.7,40,0.00,,OVC027,0.59,VWS V14.01,2013-11-06 21:24:00,
2013-11-06 15:25:00,45.9,22.9,29.38,NW,316,7.2,7.2,40,0.00,,OVC027,0.59,VWS V14.01,2013-11-06 21:25:00,
2013-11-06 15:26:00,45.9,22.9,29.38,West,281,5.8,8.7,40,0.00,,OVC027,0.59,VWS V14.01,2013-11-06 21:26:00,
2013-11-06 15:28:00,45.7,22.8,29.38,NW,313,7.6,8.3,40,0.00,,OVC027,0.59,VWS V14.01,2013-11-06 21:28:00,
2013-11-06 15:29:00,45.7,22.8,29.38,NW,319,8.3,8.7,40,0.00,,OVC027,0.59,VWS V14.01,2013-11-06 21:29:00,
2013-11-06 15:30:00,45.9,22.9,29.38,WNW,297,8.7,8.7,40,0.00,,OVC027,0.59,VWS V14.01,2013-11-06 21:30:00,
2013-11-06 15:32:00,45.7,22.8,29.38,NW,314,6.3,8.1,40,0.00,,OVC030,0.59,VWS V14.01,2013-11-06 21:32:00,
2013-11-06 15:33:00,45.7,22.8,29.38,NNW,327,10.1,10.1,40,0.00,,OVC030,0.59,VWS V14.01,2013-11-06 21:33:00,
2013-11-06 15:34:00,45.9,22.9,29.38,NW,311,8.7,8.7,40,0.00,,OVC030,0.59,VWS V14.01,2013-11-06 21:34:00,
2013-11-06 15:35:00,45.9,22.9,29.38,NW,315,7.6,10.1,40,0.00,,OVC030,0.59,VWS V14.01,2013-11-06 21:35:00,
2013-11-06 15:37:00,45.7,22.8,29.38,NW,304,5.8,5.8,40,0.00,,OVC030,0.59,VWS V14.01,2013-11-06 21:37:00,
2013-11-06 15:38:00,45.5,22.6,29.38,West,280,7.6,7.6,40,0.00,,OVC030,0.59,VWS V14.01,2013-11-06 21:38:00,
2013-11-06 15:39:00,45.5,22.6,29.38,NW,323,5.4,6.3,40,0.00,,OVC030,0.59,VWS V14.01,2013-11-06 21:39:00,
2013-11-06 15:40:00,45.3,22.4,29.38,WNW,282,5.8,8.7,40,0.00,,OVC030,0.59,VWS V14.01,2013-11-06 21:40:00,
2013-11-06 15:43:00,45.3,22.4,29.38,NW,308,8.1,8.3,40,0.00,,OVC030,0.59,VWS V14.01,2013-11-06 21:43:00,
2013-11-06 15:44:00,45.3,22.4,29.38,West,276,5.4,6.3,40,0.00,,OVC030,0.59,VWS V14.01,2013-11-06 21:44:00,
2013-11-06 15:45:00,45.3,22.4,29.38,NW,313,8.7,8.7,40,0.00,,OVC030,0.59,VWS V14.01,2013-11-06 21:45:00,
2013-11-06 15:46:00,45.3,22.4,29.38,WNW,295,8.1,8.7,40,0.00,,OVC030,0.59,VWS V14.01,2013-11-06 21:46:00,
2013-11-06 15:49:00,45.5,22.6,29.38,NW,308,7.6,7.6,40,0.00,,OVC030,0.59,VWS V14.01,2013-11-06 21:49:00,
2013-11-06 15:50:00,45.5,22.6,29.38,NW,310,6.3,8.1,40,0.00,,OVC030,0.59,VWS V14.01,2013-11-06 21:50:00,
2013-11-06 15:51:00,45.5,22.6,29.38,NW,307,8.7,8.7,40,0.00,,OVC030,0.59,VWS V14.01,2013-11-06 21:51:00,
2013-11-06 15:54:00,45.5,22.6,29.38,NW,315,6.3,8.7,40,0.00,,OVC030,0.59,VWS V14.01,2013-11-06 21:54:00,
2013-11-06 15:55:00,45.5,22.6,29.38,NW,315,5.8,5.8,40,0.00,,OVC030,0.59,VWS V14.01,2013-11-06 21:55:00,
2013-11-06 15:56:00,45.7,22.8,29.38,NW,317,5.4,5.8,40,0.00,,OVC030,0.59,VWS V14.01,2013-11-06 21:56:00,
2013-11-06 16:01:00,45.7,22.8,29.38,NW,320,6.3,8.1,40,0.00,,OVC030,0.59,VWS V14.01,2013-11-06 22:01:00,
2013-11-06 16:02:00,45.7,22.8,29.38,NW,313,6.7,8.3,40,0.00,,OVC039,0.59,VWS V14.01,2013-11-06 22:02:00,
2013-11-06 16:05:00,45.9,22.9,29.38,NW,318,6.3,8.1,40,0.00,,OVC039,0.59,VWS V14.01,2013-11-06 22:05:00,
2013-11-06 16:07:00,45.7,22.8,29.38,NW,316,6.3,8.7,40,0.00,,OVC039,0.59,VWS V14.01,2013-11-06 22:07:00,
2013-11-06 16:08:00,45.5,22.6,29.38,West,276,6.3,8.3,40,0.00,,OVC039,0.59,VWS V14.01,2013-11-06 22:08:00,
2013-11-06 16:09:00,45.5,22.6,29.41,NW,317,5.4,8.1,40,0.00,,OVC039,0.59,VWS V14.01,2013-11-06 22:09:00,
2013-11-06 16:12:00,45.5,22.6,29.41,NNW,327,5.4,5.4,40,0.00,,OVC039,0.59,VWS V14.01,2013-11-06 22:12:00,
2013-11-06 16:13:00,45.5,22.6,29.41,NW,323,5.4,5.4,40,0.00,,OVC039,0.59,VWS V14.01,2013-11-06 22:13:00,
2013-11-06 16:14:00,45.5,22.6,29.41,NW,321,8.1,8.1,40,0.00,,OVC039,0.59,VWS V14.01,2013-11-06 22:14:00,
2013-11-06 16:16:00,45.5,22.6,29.41,NW,316,4.9,5.4,40,0.00,,OVC039,0.59,VWS V14.01,2013-11-06 22:16:00,
2013-11-06 16:18:00,45.7,25.0,29.41,NW,323,5.8,8.1,44,0.00,,OVC039,0.59,VWS V14.01,2013-11-06 22:18:00,
2013-11-06 16:19:00,45.9,25.2,29.41,NW,318,6.3,6.3,44,0.00,,OVC039,0.59,VWS V14.01,2013-11-06 22:19:00,
2013-11-06 16:22:00,46.2,23.2,29.41,WNW,295,4.9,6.3,40,0.00,,OVC039,0.59,VWS V14.01,2013-11-06 22:22:00,
2013-11-06 16:23:00,46.2,23.2,29.41,WNW,282,8.3,8.3,40,0.00,,OVC039,0.59,VWS V14.01,2013-11-06 22:23:00,
2013-11-06 16:24:00,46.2,23.2,29.41,WNW,288,3.1,8.3,40,0.00,,OVC039,0.59,VWS V14.01,2013-11-06 22:24:00,
2013-11-06 16:25:00,46.0,23.1,29.41,WNW,297,4.0,4.9,40,0.00,,OVC039,0.59,VWS V14.01,2013-11-06 22:25:00,
2013-11-06 16:26:00,46.0,23.1,29.41,WNW,301,5.4,5.4,40,0.00,,OVC039,0.59,VWS V14.01,2013-11-06 22:26:00,
2013-11-06 16:27:00,45.9,22.9,29.41,NW,307,6.3,6.3,40,0.00,,OVC039,0.59,VWS V14.01,2013-11-06 22:27:00,
2013-11-06 16:29:00,45.7,22.8,29.41,NW,319,5.8,6.3,40,0.00,,OVC039,0.59,VWS V14.01,2013-11-06 22:29:00,
2013-11-06 16:30:00,45.5,22.6,29.41,NW,313,7.6,7.6,40,0.00,,OVC039,0.59,VWS V14.01,2013-11-06 22:30:00,
2013-11-06 16:32:00,45.3,22.4,29.41,NW,309,6.7,9.2,40,0.00,,OVC039,0.59,VWS V14.01,2013-11-06 22:32:00,
2013-11-06 16:35:00,45.5,22.6,29.41,NW,316,7.6,7.6,40,0.00,,OVC039,0.59,VWS V14.01,2013-11-06 22:35:00,
2013-11-06 16:36:00,45.7,22.8,29.41,NW,309,5.4,6.3,40,0.00,,OVC039,0.59,VWS V14.01,2013-11-06 22:36:00,
2013-11-06 16:38:00,45.7,22.8,29.41,NW,324,6.3,6.3,40,0.00,,OVC039,0.59,VWS V14.01,2013-11-06 22:38:00,
2013-11-06 16:39:00,45.7,22.8,29.41,WNW,292,7.6,10.5,40,0.00,,OVC039,0.59,VWS V14.01,2013-11-06 22:39:00,
2013-11-06 16:40:00,45.5,22.6,29.41,NW,316,5.8,8.1,40,0.00,,OVC039,0.59,VWS V14.01,2013-11-06 22:40:00,
2013-11-06 16:41:00,45.5,22.6,29.41,NW,314,6.3,6.3,40,0.00,,OVC039,0.59,VWS V14.01,2013-11-06 22:41:00,
2013-11-06 16:43:00,45.5,22.6,29.41,NW,325,5.8,5.8,40,0.00,,OVC039,0.59,VWS V14.01,2013-11-06 22:43:00,
2013-11-06 16:45:00,45.3,22.4,29.41,NW,309,5.8,6.7,40,0.00,,OVC039,0.59,VWS V14.01,2013-11-06 22:45:00,
2013-11-06 16:46:00,45.1,22.3,29.41,NW,316,5.4,6.3,40,0.00,,OVC039,0.59,VWS V14.01,2013-11-06 22:46:00,
2013-11-06 16:47:00,45.0,22.1,29.41,NW,325,7.6,8.1,40,0.00,,OVC039,0.59,VWS V14.01,2013-11-06 22:47:00,
2013-11-06 16:49:00,45.0,22.1,29.41,NW,322,5.8,5.8,40,0.00,,OVC039,0.59,VWS V14.01,2013-11-06 22:49:00,
2013-11-06 16:50:00,44.6,21.8,29.41,NNW,330,7.6,8.1,40,0.00,,OVC039,0.59,VWS V14.01,2013-11-06 22:50:00,
2013-11-06 16:51:00,44.6,21.8,29.41,NW,326,8.1,8.1,40,0.00,,OVC039,0.59,VWS V14.01,2013-11-06 22:51:00,
2013-11-06 16:52:00,44.8,22.0,29.41,NW,321,6.3,6.7,40,0.00,,OVC039,0.59,VWS V14.01,2013-11-06 22:52:00,
2013-11-06 16:53:00,44.6,21.8,29.41,NW,308,5.8,7.2,40,0.00,,OVC039,0.59,VWS V14.01,2013-11-06 22:53:00,
2013-11-06 16:54:00,44.4,21.6,29.41,NW,308,5.4,5.8,40,0.00,,OVC039,0.59,VWS V14.01,2013-11-06 22:54:00,
2013-11-06 16:56:00,44.1,21.3,29.41,NW,318,5.8,7.6,40,0.00,,OVC039,0.59,VWS V14.01,2013-11-06 22:56:00,
2013-11-06 16:57:00,43.9,21.1,29.41,NNW,335,7.6,7.6,40,0.00,,OVC039,0.59,VWS V14.01,2013-11-06 22:57:00,
2013-11-06 16:59:00,43.7,21.0,29.41,NW,316,7.6,8.7,40,0.00,,OVC039,0.59,VWS V14.01,2013-11-06 22:59:00,
2013-11-06 17:02:00,43.7,21.0,29.41,WNW,299,6.3,8.3,40,0.00,,OVC039,0.59,VWS V14.01,2013-11-06 23:02:00,
2013-11-06 17:03:00,43.7,21.0,29.41,NW,319,5.4,6.3,40,0.00,,OVC039,0.59,VWS V14.01,2013-11-06 23:03:00,
2013-11-06 17:04:00,43.5,20.8,29.41,NW,318,8.7,10.5,40,0.00,,OVC039,0.59,VWS V14.01,2013-11-06 23:04:00,
2013-11-06 17:05:00,43.7,21.0,29.41,NW,315,7.6,8.3,40,0.00,,OVC039,0.59,VWS V14.01,2013-11-06 23:05:00,
2013-11-06 17:07:00,43.5,20.8,29.41,NW,312,11.0,11.0,40,0.00,,OVC039,0.59,VWS V14.01,2013-11-06 23:07:00,
2013-11-06 17:09:00,43.5,20.8,29.41,NNW,329,7.6,8.3,40,0.00,,OVC039,0.59,VWS V14.01,2013-11-06 23:09:00,
2013-11-06 17:10:00,43.5,20.8,29.41,NW,312,8.3,8.3,40,0.00,,OVC039,0.59,VWS V14.01,2013-11-06 23:10:00,
2013-11-06 17:12:00,43.3,20.6,29.41,NW,318,7.6,7.6,40,0.00,,OVC039,0.59,VWS V14.01,2013-11-06 23:12:00,
2013-11-06 17:13:00,43.3,20.6,29.41,NW,324,7.6,7.6,40,0.00,,OVC039,0.59,VWS V14.01,2013-11-06 23:13:00,
2013-11-06 17:14:00,43.3,20.6,29.41,NW,314,10.1,10.1,40,0.00,,OVC039,0.59,VWS V14.01,2013-11-06 23:14:00,
2013-11-06 17:15:00,43.2,20.5,29.41,NW,311,6.3,10.1,40,0.00,,OVC039,0.59,VWS V14.01,2013-11-06 23:15:00,
2013-11-06 17:16:00,43.2,20.5,29.41,NW,320,7.6,7.6,40,0.00,,OVC039,0.59,VWS V14.01,2013-11-06 23:16:00,
2013-11-06 17:17:00,43.2,20.5,29.41,NW,313,10.1,10.1,40,0.00,,OVC039,0.59,VWS V14.01,2013-11-06 23:17:00,
2013-11-06 17:18:00,43.2,20.5,29.41,NW,317,8.3,10.1,40,0.00,,OVC039,0.59,VWS V14.01,2013-11-06 23:18:00,
2013-11-06 17:19:00,43.2,20.5,29.41,NW,322,8.1,8.3,40,0.00,,OVC039,0.59,VWS V14.01,2013-11-06 23:19:00,
2013-11-06 17:20:00,43.0,20.3,29.41,NW,311,5.8,8.3,40,0.00,,OVC039,0.59,VWS V14.01,2013-11-06 23:20:00,
2013-11-06 17:21:00,43.0,20.3,29.41,NW,317,7.6,7.6,40,0.00,,OVC039,0.59,VWS V14.01,2013-11-06 23:21:00,
2013-11-06 17:23:00,43.0,20.3,29.41,NW,318,5.4,10.5,40,0.00,,OVC039,0.59,VWS V14.01,2013-11-06 23:23:00,
2013-11-06 17:25:00,43.0,20.3,29.44,NNW,327,6.3,7.6,40,0.00,,OVC039,0.59,VWS V14.01,2013-11-06 23:25:00,
2013-11-06 17:26:00,43.0,20.3,29.44,NW,314,7.6,8.7,40,0.00,,OVC039,0.59,VWS V14.01,2013-11-06 23:26:00,
2013-11-06 17:28:00,42.8,20.2,29.44,NNW,329,8.1,10.5,40,0.00,,OVC039,0.59,VWS V14.01,2013-11-06 23:28:00,
2013-11-06 17:29:00,42.8,20.2,29.44,NNW,332,7.6,10.5,40,0.00,,OVC039,0.59,VWS V14.01,2013-11-06 23:29:00,
2013-11-06 17:30:00,42.6,21.1,29.44,NNW,330,8.7,8.7,42,0.00,,OVC039,0.59,VWS V14.01,2013-11-06 23:30:00,
2013-11-06 17:31:00,42.8,20.2,29.44,NNW,332,7.6,8.7,40,0.00,,OVC039,0.59,VWS V14.01,2013-11-06 23:31:00,
2013-11-06 17:33:00,42.8,20.2,29.44,NNW,327,7.6,7.6,40,0.00,,BKN041,0.59,VWS V14.01,2013-11-06 23:33:00,
2013-11-06 17:35:00,42.6,21.1,29.44,NW,323,8.3,8.3,42,0.00,,BKN041,0.59,VWS V14.01,2013-11-06 23:35:00,
2013-11-06 17:36:00,42.4,21.0,29.44,NNW,328,8.1,8.1,42,0.00,,BKN041,0.59,VWS V14.01,2013-11-06 23:36:00,
2013-11-06 17:38:00,42.3,20.8,29.44,NW,318,6.3,8.1,42,0.00,,BKN041,0.59,VWS V14.01,2013-11-06 23:38:00,
2013-11-06 17:39:00,42.3,20.8,29.44,NW,323,7.6,8.1,42,0.00,,BKN041,0.59,VWS V14.01,2013-11-06 23:39:00,
2013-11-06 17:40:00,42.3,20.8,29.44,NW,321,5.4,8.1,42,0.00,,BKN041,0.59,VWS V14.01,2013-11-06 23:40:00,
2013-11-06 17:41:00,42.3,20.8,29.44,NW,313,7.6,8.1,42,0.00,,BKN041,0.59,VWS V14.01,2013-11-06 23:41:00,
2013-11-06 17:42:00,42.1,20.7,29.44,NW,321,8.7,8.7,42,0.00,,BKN041,0.59,VWS V14.01,2013-11-06 23:42:00,
2013-11-06 17:44:00,42.1,20.7,29.44,NW,325,8.3,8.7,42,0.00,,BKN041,0.59,VWS V14.01,2013-11-06 23:44:00,
2013-11-06 17:46:00,41.9,20.5,29.44,NNW,333,6.3,7.6,42,0.00,,BKN041,0.59,VWS V14.01,2013-11-06 23:46:00,
2013-11-06 17:47:00,41.9,20.5,29.44,NW,320,8.3,8.3,42,0.00,,BKN041,0.59,VWS V14.01,2013-11-06 23:47:00,
2013-11-06 17:49:00,41.7,20.3,29.44,NW,322,6.3,6.3,42,0.00,,BKN041,0.59,VWS V14.01,2013-11-06 23:49:00,
2013-11-06 17:51:00,41.7,22.5,29.44,NNW,328,5.4,8.1,46,0.00,,BKN041,0.59,VWS V14.01,2013-11-06 23:51:00,
2013-11-06 17:52:00,41.7,22.5,29.44,NNW,329,5.8,7.6,46,0.00,,BKN041,0.59,VWS V14.01,2013-11-06 23:52:00,
2013-11-06 17:53:00,41.5,22.3,29.44,NNW,335,5.8,5.8,46,0.00,,BKN041,0.59,VWS V14.01,2013-11-06 23:53:00,
2013-11-06 17:54:00,41.5,22.3,29.44,NNW,332,4.0,6.3,46,0.00,,BKN041,0.59,VWS V14.01,2013-11-06 23:54:00,
2013-11-06 17:55:00,41.5,22.3,29.44,NNW,333,5.4,5.4,46,0.00,,BKN041,0.59,VWS V14.01,2013-11-06 23:55:00,
2013-11-06 17:57:00,41.2,22.0,29.44,NW,322,5.8,6.3,46,0.00,,BKN041,0.59,VWS V14.01,2013-11-06 23:57:00,
2013-11-06 17:58:00,41.0,21.8,29.44,NW,324,5.4,5.8,46,0.00,,BKN041,0.59,VWS V14.01,2013-11-06 23:58:00,
2013-11-06 17:59:00,41.0,21.8,29.44,NW,324,6.3,6.3,46,0.00,,BKN041,0.59,VWS V14.01,2013-11-06 23:59:00,
2013-11-06 18:00:00,40.8,21.7,29.44,NW,323,5.4,5.4,46,0.00,,BKN041,0.59,VWS V14.01,2013-11-07 00:00:00,
2013-11-06 18:01:00,40.6,21.5,29.44,NW,319,6.3,6.3,46,0.00,,BKN041,0.59,VWS V14.01,2013-11-07 00:01:00,
2013-11-06 18:02:00,40.6,21.5,29.44,NNW,336,6.3,6.3,46,0.00,,CLR,0.59,VWS V14.01,2013-11-07 00:02:00,
2013-11-06 18:04:00,40.5,21.3,29.44,NW,316,5.4,5.8,46,0.00,,CLR,0.59,VWS V14.01,2013-11-07 00:04:00,
2013-11-06 18:05:00,40.5,24.2,29.44,NW,321,5.8,7.2,52,0.00,,CLR,0.59,VWS V14.01,2013-11-07 00:05:00,
2013-11-06 18:06:00,40.5,24.2,29.44,NW,322,5.8,5.8,52,0.00,,CLR,0.59,VWS V14.01,2013-11-07 00:06:00,
2013-11-06 18:07:00,40.5,24.2,29.44,NNW,327,5.8,5.8,52,0.00,,CLR,0.59,VWS V14.01,2013-11-07 00:07:00,
2013-11-06 18:08:00,40.5,24.2,29.44,NW,315,6.3,6.3,52,0.00,,CLR,0.59,VWS V14.01,2013-11-07 00:08:00,
2013-11-06 18:09:00,40.5,24.2,29.44,NNW,331,5.8,5.8,52,0.00,,CLR,0.59,VWS V14.01,2013-11-07 00:09:00,
2013-11-06 18:10:00,40.5,24.2,29.44,NW,321,4.9,5.8,52,0.00,,CLR,0.59,VWS V14.01,2013-11-07 00:10:00,
2013-11-06 18:12:00,40.5,24.2,29.44,NW,325,5.4,5.4,52,0.00,,CLR,0.59,VWS V14.01,2013-11-07 00:12:00,
2013-11-06 18:13:00,40.5,24.2,29.44,NW,324,5.4,5.4,52,0.00,,CLR,0.59,VWS V14.01,2013-11-07 00:13:00,
2013-11-06 18:15:00,40.5,24.2,29.44,NNW,331,4.9,6.3,52,0.00,,CLR,0.59,VWS V14.01,2013-11-07 00:15:00,
2013-11-06 18:16:00,40.3,24.1,29.44,NW,325,5.4,6.7,52,0.00,,CLR,0.59,VWS V14.01,2013-11-07 00:16:00,
2013-11-06 18:17:00,40.3,24.1,29.44,NW,312,5.8,6.3,52,0.00,,CLR,0.59,VWS V14.01,2013-11-07 00:17:00,
2013-11-06 18:18:00,40.3,24.1,29.44,NW,319,5.4,6.3,52,0.00,,CLR,0.59,VWS V14.01,2013-11-07 00:18:00,
2013-11-06 18:19:00,40.3,24.1,29.44,NW,320,5.4,5.4,52,0.00,,CLR,0.59,VWS V14.01,2013-11-07 00:19:00,
2013-11-06 18:20:00,40.3,24.1,29.44,NNW,329,5.4,5.4,52,0.00,,CLR,0.59,VWS V14.01,2013-11-07 00:20:00,
2013-11-06 18:21:00,40.3,24.1,29.44,NNW,329,5.4,5.4,52,0.00,,CLR,0.59,VWS V14.01,2013-11-07 00:21:00,
2013-11-06 18:23:00,40.1,23.9,29.44,NNW,338,5.4,6.3,52,0.00,,CLR,0.59,VWS V14.01,2013-11-07 00:23:00,
2013-11-06 18:26:00,39.9,23.7,29.44,NW,326,5.8,5.8,52,0.00,,CLR,0.59,VWS V14.01,2013-11-07 00:26:00,
2013-11-06 18:27:00,39.9,23.7,29.44,NW,326,5.8,5.8,52,0.00,,CLR,0.59,VWS V14.01,2013-11-07 00:27:00,
2013-11-06 18:28:00,39.7,23.6,29.44,NNW,329,5.4,5.8,52,0.00,,CLR,0.59,VWS V14.01,2013-11-07 00:28:00,
2013-11-06 18:32:00,39.6,23.4,29.44,NW,324,5.4,5.4,52,0.00,,CLR,0.59,VWS V14.01,2013-11-07 00:32:00,
2013-11-06 18:33:00,39.6,23.4,29.44,NNW,330,4.9,6.3,52,0.00,,CLR,0.59,VWS V14.01,2013-11-07 00:33:00,
2013-11-06 18:34:00,39.6,23.4,29.44,NW,326,5.8,5.8,52,0.00,,CLR,0.59,VWS V14.01,2013-11-07 00:34:00,
2013-11-06 18:36:00,39.6,23.4,29.44,NNW,329,5.8,6.3,52,0.00,,CLR,0.59,VWS V14.01,2013-11-07 00:36:00,
2013-11-06 18:38:00,39.4,23.2,29.44,NNW,329,4.9,4.9,52,0.00,,CLR,0.59,VWS V14.01,2013-11-07 00:38:00,
2013-11-06 18:39:00,39.4,23.2,29.44,NNW,329,4.5,4.5,52,0.00,,CLR,0.59,VWS V14.01,2013-11-07 00:39:00,
2013-11-06 18:41:00,39.2,23.1,29.47,NNW,329,4.0,4.0,52,0.00,,CLR,0.59,VWS V14.01,2013-11-07 00:41:00,
2013-11-06 18:44:00,39.2,23.1,29.47,NNW,335,4.0,4.9,52,0.00,,CLR,0.59,VWS V14.01,2013-11-07 00:44:00,
2013-11-06 18:45:00,39.2,23.1,29.47,NNW,341,4.0,4.9,52,0.00,,CLR,0.59,VWS V14.01,2013-11-07 00:45:00,
2013-11-06 18:48:00,39.0,22.9,29.47,NNW,339,4.0,4.9,52,0.00,,CLR,0.59,VWS V14.01,2013-11-07 00:48:00,
2013-11-06 18:49:00,39.0,22.9,29.47,NNW,339,4.9,4.9,52,0.00,,CLR,0.59,VWS V14.01,2013-11-07 00:49:00,
2013-11-06 18:50:00,39.0,22.9,29.47,NNW,339,4.0,4.9,52,0.00,,CLR,0.59,VWS V14.01,2013-11-07 00:50:00,
2013-11-06 18:51:00,39.0,22.9,29.47,NNW,339,4.5,4.5,52,0.00,,CLR,0.59,VWS V14.01,2013-11-07 00:51:00,
2013-11-06 18:52:00,39.0,22.9,29.47,NNW,339,4.0,4.5,52,0.00,,CLR,0.59,VWS V14.01,2013-11-07 00:52:00,
2013-11-06 18:54:00,39.0,22.9,29.47,NNW,334,3.6,4.9,52,0.00,,CLR,0.59,VWS V14.01,2013-11-07 00:54:00,
2013-11-06 18:56:00,39.0,22.9,29.47,NNW,334,4.0,4.0,52,0.00,,CLR,0.59,VWS V14.01,2013-11-07 00:56:00,
2013-11-06 18:57:00,38.8,22.7,29.47,NNW,334,4.0,4.0,52,0.00,,CLR,0.59,VWS V14.01,2013-11-07 00:57:00,
2013-11-06 18:58:00,38.8,22.7,29.47,NNW,334,4.0,4.0,52,0.00,,CLR,0.59,VWS V14.01,2013-11-07 00:58:00,
2013-11-06 19:00:00,38.8,22.7,29.47,NNW,329,3.6,4.9,52,0.00,,CLR,0.59,VWS V14.01,2013-11-07 01:00:00,
2013-11-06 19:01:00,38.8,22.7,29.47,NNW,329,4.0,4.0,52,0.00,,CLR,0.59,VWS V14.01,2013-11-07 01:01:00,
2013-11-06 19:02:00,38.8,22.7,29.47,NNW,329,3.6,4.0,52,0.00,,CLR,0.59,VWS V14.01,2013-11-07 01:02:00,
2013-11-06 19:03:00,38.8,22.7,29.47,NNW,329,4.0,4.0,52,0.00,,CLR,0.59,VWS V14.01,2013-11-07 01:03:00,
2013-11-06 19:04:00,38.8,22.7,29.47,NNW,329,4.0,4.0,52,0.00,,CLR,0.59,VWS V14.01,2013-11-07 01:04:00,
2013-11-06 19:05:00,38.7,22.6,29.47,NNW,327,4.0,4.9,52,0.00,,CLR,0.59,VWS V14.01,2013-11-07 01:05:00,
2013-11-06 19:07:00,38.7,22.6,29.47,NW,311,4.9,4.9,52,0.00,,CLR,0.59,VWS V14.01,2013-11-07 01:07:00,
2013-11-06 19:09:00,38.7,22.6,29.47,NW,311,4.0,4.0,52,0.00,,CLR,0.59,VWS V14.01,2013-11-07 01:09:00,
2013-11-06 19:10:00,38.5,22.4,29.47,NW,311,4.0,4.9,52,0.00,,CLR,0.59,VWS V14.01,2013-11-07 01:10:00,
2013-11-06 19:12:00,38.5,22.4,29.47,NW,311,4.0,4.0,52,0.00,,CLR,0.59,VWS V14.01,2013-11-07 01:12:00,
2013-11-06 19:14:00,38.3,22.2,29.47,NW,311,2.7,3.1,52,0.00,,CLR,0.59,VWS V14.01,2013-11-07 01:14:00,
2013-11-06 19:15:00,38.3,22.2,29.47,NW,314,3.6,4.0,52,0.00,,CLR,0.59,VWS V14.01,2013-11-07 01:15:00,
2013-11-06 19:16:00,38.3,22.2,29.47,NW,314,3.6,3.6,52,0.00,,CLR,0.59,VWS V14.01,2013-11-07 01:16:00,
2013-11-06 19:18:00,38.3,22.2,29.47,NW,314,2.7,3.1,52,0.00,,CLR,0.59,VWS V14.01,2013-11-07 01:18:00,
2013-11-06 19:20:00,38.3,22.2,29.47,NW,314,3.1,3.1,52,0.00,,CLR,0.59,VWS V14.01,2013-11-07 01:20:00,
2013-11-06 19:21:00,38.3,22.2,29.47,NW,314,3.1,3.6,52,0.00,,CLR,0.59,VWS V14.01,2013-11-07 01:21:00,
2013-11-06 19:23:00,38.3,22.2,29.47,NW,314,2.7,2.7,52,0.00,,CLR,0.59,VWS V14.01,2013-11-07 01:23:00,
2013-11-06 19:24:00,38.3,22.2,29.47,NW,314,2.7,3.1,52,0.00,,CLR,0.59,VWS V14.01,2013-11-07 01:24:00,
2013-11-06 19:25:00,38.3,22.2,29.47,NW,314,2.7,3.1,52,0.00,,CLR,0.59,VWS V14.01,2013-11-07 01:25:00,
2013-11-06 19:27:00,38.1,22.1,29.47,NW,314,2.7,2.7,52,0.00,,CLR,0.59,VWS V14.01,2013-11-07 01:27:00,
2013-11-06 19:28:00,38.1,22.1,29.47,NW,310,3.1,4.0,52,0.00,,CLR,0.59,VWS V14.01,2013-11-07 01:28:00,
2013-11-06 19:30:00,38.1,22.1,29.47,NW,310,3.1,3.6,52,0.00,,CLR,0.59,VWS V14.01,2013-11-07 01:30:00,
2013-11-06 19:31:00,38.1,22.1,29.47,NW,311,3.6,3.6,52,0.00,,CLR,0.59,VWS V14.01,2013-11-07 01:31:00,
2013-11-06 19:33:00,37.9,21.9,29.47,NW,311,2.7,3.6,52,0.00,,CLR,0.59,VWS V14.01,2013-11-07 01:33:00,
2013-11-06 19:34:00,37.9,21.9,29.47,NW,311,3.1,3.1,52,0.00,,CLR,0.59,VWS V14.01,2013-11-07 01:34:00,
2013-11-06 19:35:00,37.9,21.9,29.47,NW,311,3.6,3.6,52,0.00,,CLR,0.59,VWS V14.01,2013-11-07 01:35:00,
2013-11-06 19:36:00,37.9,21.9,29.47,NW,311,3.6,3.6,52,0.00,,CLR,0.59,VWS V14.01,2013-11-07 01:36:00,
2013-11-06 19:38:00,37.9,24.5,29.47,NW,311,4.0,4.0,58,0.00,,CLR,0.59,VWS V14.01,2013-11-07 01:38:00,
2013-11-06 19:40:00,37.8,24.3,29.47,NW,312,4.0,4.9,58,0.00,,CLR,0.59,VWS V14.01,2013-11-07 01:40:00,
2013-11-06 19:41:00,37.8,24.3,29.47,NW,312,4.0,4.0,58,0.00,,CLR,0.59,VWS V14.01,2013-11-07 01:41:00,
2013-11-06 19:44:00,37.6,24.2,29.47,NW,312,4.0,4.0,58,0.00,,CLR,0.59,VWS V14.01,2013-11-07 01:44:00,
2013-11-06 19:45:00,37.6,24.2,29.47,NW,312,4.0,4.0,58,0.00,,CLR,0.59,VWS V14.01,2013-11-07 01:45:00,
2013-11-06 19:46:00,37.4,24.0,29.47,NW,312,4.0,4.0,58,0.00,,CLR,0.59,VWS V14.01,2013-11-07 01:46:00,
2013-11-06 19:47:00,37.4,24.0,29.47,NW,312,3.6,4.0,58,0.00,,CLR,0.59,VWS V14.01,2013-11-07 01:47:00,
2013-11-06 19:49:00,37.4,24.0,29.47,NW,312,4.0,4.0,58,0.00,,CLR,0.59,VWS V14.01,2013-11-07 01:49:00,
2013-11-06 19:50:00,37.4,24.0,29.47,NW,312,4.0,4.0,58,0.00,,CLR,0.59,VWS V14.01,2013-11-07 01:50:00,
2013-11-06 19:52:00,37.4,24.0,29.47,NW,312,4.0,4.5,58,0.00,,CLR,0.59,VWS V14.01,2013-11-07 01:52:00,
2013-11-06 19:53:00,37.4,24.0,29.47,NW,312,3.6,4.0,58,0.00,,CLR,0.59,VWS V14.01,2013-11-07 01:53:00,
2013-11-06 19:54:00,37.2,24.6,29.47,NW,312,3.6,4.0,60,0.00,,CLR,0.59,VWS V14.01,2013-11-07 01:54:00,
2013-11-06 19:56:00,37.2,24.6,29.47,NW,312,3.1,3.1,60,0.00,,CLR,0.59,VWS V14.01,2013-11-07 01:56:00,
2013-11-06 19:57:00,37.2,24.6,29.47,NW,312,3.1,3.1,60,0.00,,CLR,0.59,VWS V14.01,2013-11-07 01:57:00,
2013-11-06 19:58:00,37.2,24.6,29.47,NW,313,3.1,3.1,60,0.00,,CLR,0.59,VWS V14.01,2013-11-07 01:58:00,
2013-11-06 20:00:00,37.2,24.6,29.47,NW,313,2.7,2.7,60,0.00,,CLR,0.59,VWS V14.01,2013-11-07 02:00:00,
2013-11-06 20:02:00,37.2,24.6,29.47,NW,313,3.1,3.1,60,0.00,,CLR,0.59,VWS V14.01,2013-11-07 02:02:00,
2013-11-06 20:03:00,37.2,24.6,29.47,NW,313,2.7,3.6,60,0.00,,CLR,0.59,VWS V14.01,2013-11-07 02:03:00,
2013-11-06 20:04:00,37.2,24.6,29.47,NW,313,2.7,3.1,60,0.00,,CLR,0.59,VWS V14.01,2013-11-07 02:04:00,
2013-11-06 20:05:00,37.2,24.6,29.47,NW,313,3.1,3.6,60,0.00,,CLR,0.59,VWS V14.01,2013-11-07 02:05:00,
2013-11-06 20:07:00,37.2,24.6,29.47,NW,313,2.7,3.1,60,0.00,,CLR,0.59,VWS V14.01,2013-11-07 02:07:00,
2013-11-06 20:08:00,37.0,24.5,29.47,NW,313,0.0,2.7,60,0.00,,CLR,0.59,VWS V14.01,2013-11-07 02:08:00,
2013-11-06 20:09:00,37.0,24.5,29.47,NW,313,0.0,2.7,60,0.00,,CLR,0.59,VWS V14.01,2013-11-07 02:09:00,
2013-11-06 20:10:00,37.0,24.5,29.47,NW,313,2.2,2.7,60,0.00,,CLR,0.59,VWS V14.01,2013-11-07 02:10:00,
2013-11-06 20:11:00,37.0,24.5,29.47,NW,313,2.2,2.7,60,0.00,,CLR,0.59,VWS V14.01,2013-11-07 02:11:00,
2013-11-06 20:13:00,37.0,24.5,29.47,NW,313,0.0,0.0,60,0.00,,CLR,0.59,VWS V14.01,2013-11-07 02:13:00,
2013-11-06 20:14:00,36.9,24.3,29.47,NW,313,0.0,0.0,60,0.00,,CLR,0.59,VWS V14.01,2013-11-07 02:14:00,
2013-11-06 20:15:00,36.9,24.3,29.47,NW,313,0.0,0.0,60,0.00,,CLR,0.59,VWS V14.01,2013-11-07 02:15:00,
2013-11-06 20:16:00,36.9,24.3,29.47,NW,313,0.0,0.0,60,0.00,,CLR,0.59,VWS V14.01,2013-11-07 02:16:00,
2013-11-06 20:18:00,36.9,24.3,29.47,NW,313,2.7,3.1,60,0.00,,CLR,0.59,VWS V14.01,2013-11-07 02:18:00,
2013-11-06 20:19:00,36.9,24.3,29.47,NW,313,3.1,3.6,60,0.00,,CLR,0.59,VWS V14.01,2013-11-07 02:19:00,
2013-11-06 20:20:00,36.9,24.3,29.47,NW,313,0.0,3.1,60,0.00,,CLR,0.59,VWS V14.01,2013-11-07 02:20:00,
2013-11-06 20:21:00,36.9,24.3,29.47,NW,313,0.0,0.0,60,0.00,,CLR,0.59,VWS V14.01,2013-11-07 02:21:00,
2013-11-06 20:23:00,36.7,24.1,29.47,NW,313,0.0,0.0,60,0.00,,CLR,0.59,VWS V14.01,2013-11-07 02:23:00,
2013-11-06 20:24:00,36.7,24.1,29.47,NW,313,0.0,0.0,60,0.00,,CLR,0.59,VWS V14.01,2013-11-07 02:24:00,
2013-11-06 20:25:00,36.5,24.0,29.47,NW,313,0.0,0.0,60,0.00,,CLR,0.59,VWS V14.01,2013-11-07 02:25:00,
2013-11-06 20:27:00,36.5,24.0,29.47,NW,313,0.0,0.0,60,0.00,,CLR,0.59,VWS V14.01,2013-11-07 02:27:00,
2013-11-06 20:28:00,36.3,23.8,29.47,NW,313,0.0,0.0,60,0.00,,CLR,0.59,VWS V14.01,2013-11-07 02:28:00,
2013-11-06 20:29:00,36.3,23.8,29.47,NW,313,0.0,0.0,60,0.00,,CLR,0.59,VWS V14.01,2013-11-07 02:29:00,
2013-11-06 20:30:00,36.3,23.8,29.47,NW,313,0.0,0.0,60,0.00,,CLR,0.59,VWS V14.01,2013-11-07 02:30:00,
2013-11-06 20:31:00,36.3,23.8,29.47,NW,313,0.0,0.0,60,0.00,,CLR,0.59,VWS V14.01,2013-11-07 02:31:00,
2013-11-06 20:32:00,36.1,23.6,29.47,NW,313,0.0,0.0,60,0.00,,CLR,0.59,VWS V14.01,2013-11-07 02:32:00,
2013-11-06 20:33:00,36.1,23.6,29.47,NW,313,0.0,0.0,60,0.00,,CLR,0.59,VWS V14.01,2013-11-07 02:33:00,
2013-11-06 20:34:00,36.1,23.6,29.47,NW,313,0.0,0.0,60,0.00,,CLR,0.59,VWS V14.01,2013-11-07 02:34:00,
2013-11-06 20:35:00,36.1,23.6,29.47,NW,313,0.0,0.0,60,0.00,,CLR,0.59,VWS V14.01,2013-11-07 02:35:00,
2013-11-06 20:38:00,36.1,24.4,29.47,NW,313,0.0,0.0,62,0.00,,CLR,0.59,VWS V14.01,2013-11-07 02:38:00,
2013-11-06 20:39:00,36.1,24.4,29.47,NW,313,0.0,0.0,62,0.00,,CLR,0.59,VWS V14.01,2013-11-07 02:39:00,
2013-11-06 20:40:00,36.1,24.4,29.47,NW,313,0.0,0.0,62,0.00,,CLR,0.59,VWS V14.01,2013-11-07 02:40:00,
2013-11-06 20:43:00,36.1,24.4,29.47,NW,313,2.7,2.7,62,0.00,,CLR,0.59,VWS V14.01,2013-11-07 02:43:00,
2013-11-06 20:44:00,36.1,24.4,29.47,NW,313,2.7,2.7,62,0.00,,CLR,0.59,VWS V14.01,2013-11-07 02:44:00,
2013-11-06 20:45:00,36.1,24.4,29.47,NW,313,3.1,3.1,62,0.00,,CLR,0.59,VWS V14.01,2013-11-07 02:45:00,
2013-11-06 20:46:00,36.1,24.4,29.47,NW,313,4.0,4.0,62,0.00,,CLR,0.59,VWS V14.01,2013-11-07 02:46:00,
2013-11-06 20:49:00,36.3,25.3,29.47,NW,313,2.7,3.6,64,0.00,,CLR,0.59,VWS V14.01,2013-11-07 02:49:00,
2013-11-06 20:50:00,36.3,25.3,29.47,NW,313,3.1,3.6,64,0.00,,CLR,0.59,VWS V14.01,2013-11-07 02:50:00,
2013-11-06 20:51:00,36.3,25.3,29.47,NW,313,2.2,2.7,64,0.00,,CLR,0.59,VWS V14.01,2013-11-07 02:51:00,
2013-11-06 20:54:00,36.1,25.1,29.50,NW,313,3.1,3.1,64,0.00,,CLR,0.59,VWS V14.01,2013-11-07 02:54:00,
2013-11-06 20:55:00,36.1,25.1,29.50,NW,313,3.1,3.6,64,0.00,,CLR,0.59,VWS V14.01,2013-11-07 02:55:00,
2013-11-06 20:56:00,36.0,25.0,29.50,NW,313,2.7,3.6,64,0.00,,CLR,0.59,VWS V14.01,2013-11-07 02:56:00,
2013-11-06 20:57:00,36.0,25.0,29.50,NW,313,2.7,3.1,64,0.00,,CLR,0.59,VWS V14.01,2013-11-07 02:57:00,
2013-11-06 20:58:00,36.0,25.0,29.50,NW,313,2.2,2.7,64,0.00,,CLR,0.59,VWS V14.01,2013-11-07 02:58:00,
2013-11-06 21:00:00,36.0,25.0,29.50,NW,313,0.0,0.0,64,0.00,,CLR,0.59,VWS V14.01,2013-11-07 03:00:00,
2013-11-06 21:02:00,36.0,25.0,29.50,NW,313,2.7,3.1,64,0.00,,CLR,0.59,VWS V14.01,2013-11-07 03:02:00,
2013-11-06 21:03:00,36.0,25.0,29.50,NW,313,3.1,3.1,64,0.00,,CLR,0.59,VWS V14.01,2013-11-07 03:03:00,
2013-11-06 21:04:00,36.0,25.0,29.50,NW,313,3.1,3.1,64,0.00,,CLR,0.59,VWS V14.01,2013-11-07 03:04:00,
2013-11-06 21:05:00,36.0,25.0,29.50,NW,313,3.1,3.1,64,0.00,,CLR,0.59,VWS V14.01,2013-11-07 03:05:00,
2013-11-06 21:08:00,35.8,24.8,29.50,NW,313,2.2,2.7,64,0.00,,CLR,0.59,VWS V14.01,2013-11-07 03:08:00,
2013-11-06 21:10:00,35.8,24.0,29.50,NW,313,2.7,2.7,62,0.00,,CLR,0.59,VWS V14.01,2013-11-07 03:10:00,
2013-11-06 21:11:00,35.8,24.0,29.50,NW,313,3.1,3.1,62,0.00,,CLR,0.59,VWS V14.01,2013-11-07 03:11:00,
2013-11-06 21:13:00,35.8,24.0,29.50,NW,313,3.1,3.1,62,0.00,,CLR,0.59,VWS V14.01,2013-11-07 03:13:00,
2013-11-06 21:15:00,35.6,23.9,29.50,NW,313,0.0,0.0,62,0.00,,CLR,0.59,VWS V14.01,2013-11-07 03:15:00,
2013-11-06 21:16:00,35.6,23.9,29.50,NW,313,0.0,0.0,62,0.00,,CLR,0.59,VWS V14.01,2013-11-07 03:16:00,
2013-11-06 21:19:00,35.6,23.9,29.50,NW,313,0.0,0.0,62,0.00,,CLR,0.59,VWS V14.01,2013-11-07 03:19:00,
2013-11-06 21:21:00,35.2,23.5,29.50,NW,313,0.0,0.0,62,0.00,,CLR,0.59,VWS V14.01,2013-11-07 03:21:00,
2013-11-06 21:23:00,34.9,23.2,29.50,NW,313,0.0,0.0,62,0.00,,CLR,0.59,VWS V14.01,2013-11-07 03:23:00,
2013-11-06 21:24:00,34.5,22.9,29.50,NW,313,0.0,0.0,62,0.00,,CLR,0.59,VWS V14.01,2013-11-07 03:24:00,
2013-11-06 21:26:00,34.3,22.7,29.50,NW,313,0.0,0.0,62,0.00,,CLR,0.59,VWS V14.01,2013-11-07 03:26:00,
2013-11-06 21:27:00,34.3,22.7,29.50,NW,313,0.0,0.0,62,0.00,,CLR,0.59,VWS V14.01,2013-11-07 03:27:00,
2013-11-06 21:28:00,34.2,22.5,29.50,NW,313,0.0,0.0,62,0.00,,CLR,0.59,VWS V14.01,2013-11-07 03:28:00,
2013-11-06 21:29:00,34.0,22.4,29.50,NW,313,0.0,0.0,62,0.00,,CLR,0.59,VWS V14.01,2013-11-07 03:29:00,
2013-11-06 21:31:00,34.0,22.4,29.50,NW,313,0.0,0.0,62,0.00,,CLR,0.59,VWS V14.01,2013-11-07 03:31:00,
2013-11-06 21:32:00,33.8,22.2,29.50,NW,313,0.0,2.2,62,0.00,,CLR,0.59,VWS V14.01,2013-11-07 03:32:00,
2013-11-06 21:33:00,33.8,22.2,29.50,NW,313,2.7,2.7,62,0.00,,CLR,0.59,VWS V14.01,2013-11-07 03:33:00,
2013-11-06 21:35:00,33.8,22.2,29.50,NW,313,0.0,0.0,62,0.00,,CLR,0.59,VWS V14.01,2013-11-07 03:35:00,
2013-11-06 21:36:00,33.8,22.9,29.50,NW,313,0.0,0.0,64,0.00,,CLR,0.59,VWS V14.01,2013-11-07 03:36:00,
2013-11-06 21:38:00,34.0,23.1,29.50,NW,313,0.0,0.0,64,0.00,,CLR,0.59,VWS V14.01,2013-11-07 03:38:00,
2013-11-06 21:40:00,34.0,23.8,29.50,NW,313,0.0,0.0,66,0.00,,CLR,0.59,VWS V14.01,2013-11-07 03:40:00,
2013-11-06 21:41:00,34.2,24.0,29.50,NW,313,0.0,0.0,66,0.00,,CLR,0.59,VWS V14.01,2013-11-07 03:41:00,
2013-11-06 21:42:00,34.2,24.0,29.50,NW,313,0.0,0.0,66,0.00,,CLR,0.59,VWS V14.01,2013-11-07 03:42:00,
2013-11-06 21:44:00,34.2,24.0,29.50,NW,313,0.0,0.0,66,0.00,,CLR,0.59,VWS V14.01,2013-11-07 03:44:00,
2013-11-06 21:45:00,34.2,24.0,29.50,NW,313,0.0,0.0,66,0.00,,CLR,0.59,VWS V14.01,2013-11-07 03:45:00,
2013-11-06 21:47:00,34.2,24.0,29.50,NW,313,0.0,0.0,66,0.00,,CLR,0.59,VWS V14.01,2013-11-07 03:47:00,
2013-11-06 21:48:00,34.2,24.0,29.50,NW,313,0.0,0.0,66,0.00,,CLR,0.59,VWS V14.01,2013-11-07 03:48:00,
2013-11-06 21:49:00,34.2,24.0,29.50,NW,313,0.0,0.0,66,0.00,,CLR,0.59,VWS V14.01,2013-11-07 03:49:00,
2013-11-06 21:50:00,34.2,24.0,29.50,NW,313,0.0,0.0,66,0.00,,CLR,0.59,VWS V14.01,2013-11-07 03:50:00,
2013-11-06 21:51:00,34.2,24.0,29.50,NW,313,0.0,0.0,66,0.00,,CLR,0.59,VWS V14.01,2013-11-07 03:51:00,
2013-11-06 21:52:00,34.2,24.0,29.50,NW,313,0.0,0.0,66,0.00,,CLR,0.59,VWS V14.01,2013-11-07 03:52:00,
2013-11-06 21:54:00,34.2,24.7,29.50,NW,313,0.0,0.0,68,0.00,,CLR,0.59,VWS V14.01,2013-11-07 03:54:00,
2013-11-06 21:55:00,34.3,24.9,29.50,NW,313,0.0,0.0,68,0.00,,CLR,0.59,VWS V14.01,2013-11-07 03:55:00,
2013-11-06 21:56:00,34.3,24.9,29.50,NW,313,0.0,0.0,68,0.00,,CLR,0.59,VWS V14.01,2013-11-07 03:56:00,
2013-11-06 21:58:00,34.3,24.9,29.50,NW,313,0.0,0.0,68,0.00,,CLR,0.59,VWS V14.01,2013-11-07 03:58:00,
2013-11-06 22:00:00,34.5,25.8,29.50,NW,313,0.0,0.0,70,0.00,,CLR,0.59,VWS V14.01,2013-11-07 04:00:00,
2013-11-06 22:01:00,34.5,25.8,29.50,NW,313,0.0,0.0,70,0.00,,CLR,0.59,VWS V14.01,2013-11-07 04:01:00,
2013-11-06 22:03:00,34.3,24.9,29.50,NW,313,0.0,0.0,68,0.00,,CLR,0.59,VWS V14.01,2013-11-07 04:03:00,
2013-11-06 22:04:00,34.3,24.9,29.50,NW,313,0.0,0.0,68,0.00,,CLR,0.59,VWS V14.01,2013-11-07 04:04:00,
2013-11-06 22:06:00,34.3,24.9,29.50,NW,313,0.0,0.0,68,0.00,,CLR,0.59,VWS V14.01,2013-11-07 04:06:00,
2013-11-06 22:07:00,34.3,24.9,29.50,NW,313,0.0,0.0,68,0.00,,CLR,0.59,VWS V14.01,2013-11-07 04:07:00,
2013-11-06 22:09:00,34.3,24.9,29.50,NW,313,0.0,0.0,68,0.00,,CLR,0.59,VWS V14.01,2013-11-07 04:09:00,
2013-11-06 22:11:00,34.3,25.6,29.50,NW,313,0.0,0.0,70,0.00,,CLR,0.59,VWS V14.01,2013-11-07 04:11:00,
2013-11-06 22:12:00,34.3,25.6,29.50,NW,313,0.0,0.0,70,0.00,,CLR,0.59,VWS V14.01,2013-11-07 04:12:00,
2013-11-06 22:14:00,34.3,25.6,29.50,NW,313,0.0,0.0,70,0.00,,CLR,0.59,VWS V14.01,2013-11-07 04:14:00,
2013-11-06 22:15:00,34.3,25.6,29.50,NW,313,0.0,0.0,70,0.00,,CLR,0.59,VWS V14.01,2013-11-07 04:15:00,
2013-11-06 22:17:00,34.0,24.5,29.50,NW,313,0.0,0.0,68,0.00,,CLR,0.59,VWS V14.01,2013-11-07 04:17:00,
2013-11-06 22:20:00,33.3,23.9,29.50,NW,313,0.0,0.0,68,0.00,,CLR,0.59,VWS V14.01,2013-11-07 04:20:00,
2013-11-06 22:21:00,33.3,23.9,29.50,NW,313,0.0,0.0,68,0.00,,CLR,0.59,VWS V14.01,2013-11-07 04:21:00,
2013-11-06 22:22:00,33.1,23.7,29.50,NW,313,0.0,0.0,68,0.00,,CLR,0.59,VWS V14.01,2013-11-07 04:22:00,
2013-11-06 22:26:00,32.7,23.3,29.50,NW,313,0.0,0.0,68,0.00,,CLR,0.59,VWS V14.01,2013-11-07 04:26:00,
2013-11-06 22:27:00,32.7,23.3,29.50,NW,313,0.0,0.0,68,0.00,,CLR,0.59,VWS V14.01,2013-11-07 04:27:00,
2013-11-06 22:28:00,32.7,23.3,29.50,NW,313,0.0,0.0,68,0.00,,CLR,0.59,VWS V14.01,2013-11-07 04:28:00,
2013-11-06 22:29:00,32.7,23.3,29.50,NW,313,0.0,0.0,68,0.00,,CLR,0.59,VWS V14.01,2013-11-07 04:29:00,
2013-11-06 22:31:00,32.7,23.3,29.50,NW,313,0.0,0.0,68,0.00,,CLR,0.59,VWS V14.01,2013-11-07 04:31:00,
2013-11-06 22:32:00,32.7,23.3,29.50,NW,313,0.0,0.0,68,0.00,,CLR,0.59,VWS V14.01,2013-11-07 04:32:00,
2013-11-06 22:33:00,32.7,24.0,29.50,NW,313,0.0,0.0,70,0.00,,CLR,0.59,VWS V14.01,2013-11-07 04:33:00,
2013-11-06 22:34:00,32.7,24.0,29.50,NW,313,0.0,0.0,70,0.00,,CLR,0.59,VWS V14.01,2013-11-07 04:34:00,
2013-11-06 22:36:00,32.7,24.0,29.50,NW,313,0.0,0.0,70,0.00,,CLR,0.59,VWS V14.01,2013-11-07 04:36:00,
2013-11-06 22:38:00,32.5,23.9,29.50,NW,313,0.0,0.0,70,0.00,,CLR,0.59,VWS V14.01,2013-11-07 04:38:00,
2013-11-06 22:39:00,32.5,23.9,29.50,NW,313,0.0,0.0,70,0.00,,CLR,0.59,VWS V14.01,2013-11-07 04:39:00,
2013-11-06 22:40:00,32.5,23.9,29.50,NW,313,0.0,0.0,70,0.00,,CLR,0.59,VWS V14.01,2013-11-07 04:40:00,
2013-11-06 22:42:00,32.4,23.7,29.50,NW,313,0.0,0.0,70,0.00,,CLR,0.59,VWS V14.01,2013-11-07 04:42:00,
2013-11-06 22:43:00,32.4,23.7,29.50,NW,313,0.0,0.0,70,0.00,,CLR,0.59,VWS V14.01,2013-11-07 04:43:00,
2013-11-06 22:44:00,32.4,23.7,29.50,NW,313,0.0,0.0,70,0.00,,CLR,0.59,VWS V14.01,2013-11-07 04:44:00,
2013-11-06 22:45:00,32.4,23.7,29.50,NW,313,0.0,0.0,70,0.00,,CLR,0.59,VWS V14.01,2013-11-07 04:45:00,
2013-11-06 22:47:00,32.4,23.7,29.50,NW,313,0.0,0.0,70,0.00,,CLR,0.59,VWS V14.01,2013-11-07 04:47:00,
2013-11-06 22:48:00,32.4,24.4,29.50,NW,313,0.0,0.0,72,0.00,,CLR,0.59,VWS V14.01,2013-11-07 04:48:00,
2013-11-06 22:49:00,32.4,24.4,29.50,NW,313,0.0,0.0,72,0.00,,CLR,0.59,VWS V14.01,2013-11-07 04:49:00,
2013-11-06 22:50:00,32.4,24.4,29.50,NW,313,0.0,0.0,72,0.00,,CLR,0.59,VWS V14.01,2013-11-07 04:50:00,
2013-11-06 22:51:00,32.4,24.4,29.50,NW,313,0.0,0.0,72,0.00,,CLR,0.59,VWS V14.01,2013-11-07 04:51:00,
2013-11-06 22:52:00,32.4,24.4,29.50,NW,313,0.0,0.0,72,0.00,,CLR,0.59,VWS V14.01,2013-11-07 04:52:00,
2013-11-06 22:53:00,32.5,24.5,29.50,NW,313,0.0,0.0,72,0.00,,CLR,0.59,VWS V14.01,2013-11-07 04:53:00,
2013-11-06 22:55:00,32.5,24.5,29.50,NW,313,0.0,0.0,72,0.00,,CLR,0.59,VWS V14.01,2013-11-07 04:55:00,
2013-11-06 22:56:00,32.5,24.5,29.50,NW,313,0.0,0.0,72,0.00,,CLR,0.59,VWS V14.01,2013-11-07 04:56:00,
2013-11-06 22:57:00,32.5,25.2,29.50,NW,313,0.0,0.0,74,0.00,,CLR,0.59,VWS V14.01,2013-11-07 04:57:00,
2013-11-06 22:58:00,32.5,25.2,29.50,NW,313,0.0,0.0,74,0.00,,CLR,0.59,VWS V14.01,2013-11-07 04:58:00,
2013-11-06 22:59:00,32.5,25.2,29.50,NW,313,0.0,0.0,74,0.00,,CLR,0.59,VWS V14.01,2013-11-07 04:59:00,
2013-11-06 23:00:00,32.5,25.2,29.50,NW,313,0.0,0.0,74,0.00,,CLR,0.59,VWS V14.01,2013-11-07 05:00:00,
2013-11-06 23:01:00,32.5,25.2,29.50,NW,313,0.0,0.0,74,0.00,,CLR,0.59,VWS V14.01,2013-11-07 05:01:00,
2013-11-06 23:02:00,32.5,25.2,29.50,NW,313,0.0,0.0,74,0.00,,CLR,0.59,VWS V14.01,2013-11-07 05:02:00,
2013-11-06 23:06:00,32.2,24.8,29.50,NW,313,0.0,0.0,74,0.00,,CLR,0.59,VWS V14.01,2013-11-07 05:06:00,
2013-11-06 23:07:00,32.2,24.8,29.50,NW,313,0.0,0.0,74,0.00,,CLR,0.59,VWS V14.01,2013-11-07 05:07:00,
2013-11-06 23:08:00,32.2,24.8,29.50,NW,313,0.0,0.0,74,0.00,,CLR,0.59,VWS V14.01,2013-11-07 05:08:00,
2013-11-06 23:10:00,32.2,24.8,29.50,NW,313,0.0,0.0,74,0.00,,CLR,0.59,VWS V14.01,2013-11-07 05:10:00,
2013-11-06 23:11:00,32.2,24.8,29.50,NW,313,0.0,0.0,74,0.00,,CLR,0.59,VWS V14.01,2013-11-07 05:11:00,
2013-11-06 23:12:00,32.2,24.8,29.50,NW,313,0.0,0.0,74,0.00,,CLR,0.59,VWS V14.01,2013-11-07 05:12:00,
2013-11-06 23:14:00,32.2,25.5,29.50,NW,313,0.0,0.0,76,0.00,,CLR,0.59,VWS V14.01,2013-11-07 05:14:00,
2013-11-06 23:16:00,32.2,25.5,29.50,NW,313,0.0,0.0,76,0.00,,CLR,0.59,VWS V14.01,2013-11-07 05:16:00,
2013-11-06 23:17:00,32.2,25.5,29.50,NW,313,0.0,0.0,76,0.00,,CLR,0.59,VWS V14.01,2013-11-07 05:17:00,
2013-11-06 23:18:00,32.2,25.5,29.50,NW,313,0.0,0.0,76,0.00,,CLR,0.59,VWS V14.01,2013-11-07 05:18:00,
2013-11-06 23:20:00,32.2,25.5,29.50,NW,313,0.0,0.0,76,0.00,,CLR,0.59,VWS V14.01,2013-11-07 05:20:00,
2013-11-06 23:22:00,32.2,25.5,29.50,NW,313,0.0,0.0,76,0.00,,CLR,0.59,VWS V14.01,2013-11-07 05:22:00,
2013-11-06 23:23:00,32.2,25.5,29.50,NW,313,0.0,0.0,76,0.00,,CLR,0.59,VWS V14.01,2013-11-07 05:23:00,
2013-11-06 23:25:00,32.2,25.5,29.50,NW,313,0.0,0.0,76,0.00,,CLR,0.59,VWS V14.01,2013-11-07 05:25:00,
2013-11-06 23:27:00,32.2,26.1,29.50,NW,313,0.0,0.0,78,0.00,,CLR,0.59,VWS V14.01,2013-11-07 05:27:00,
2013-11-06 23:28:00,32.2,26.1,29.50,NW,313,0.0,0.0,78,0.00,,CLR,0.59,VWS V14.01,2013-11-07 05:28:00,
2013-11-06 23:29:00,32.2,25.5,29.50,NW,313,0.0,0.0,76,0.00,,CLR,0.59,VWS V14.01,2013-11-07 05:29:00,
2013-11-06 23:30:00,32.0,25.3,29.50,NW,313,0.0,0.0,76,0.00,,CLR,0.59,VWS V14.01,2013-11-07 05:30:00,
2013-11-06 23:31:00,32.0,25.3,29.50,NW,313,0.0,0.0,76,0.00,,CLR,0.59,VWS V14.01,2013-11-07 05:31:00,
2013-11-06 23:32:00,32.0,25.9,29.50,NW,313,0.0,0.0,78,0.00,,CLR,0.59,VWS V14.01,2013-11-07 05:32:00,
2013-11-06 23:34:00,31.8,25.1,29.50,NW,313,0.0,0.0,76,0.00,,CLR,0.59,VWS V14.01,2013-11-07 05:34:00,
2013-11-06 23:35:00,31.6,25.0,29.50,NW,313,0.0,0.0,76,0.00,,CLR,0.59,VWS V14.01,2013-11-07 05:35:00,
2013-11-06 23:36:00,31.6,25.0,29.50,NW,313,0.0,0.0,76,0.00,,CLR,0.59,VWS V14.01,2013-11-07 05:36:00,
2013-11-06 23:37:00,31.6,25.6,29.50,NW,313,0.0,0.0,78,0.00,,CLR,0.59,VWS V14.01,2013-11-07 05:37:00,
2013-11-06 23:38:00,31.6,25.6,29.50,NW,313,0.0,0.0,78,0.00,,CLR,0.59,VWS V14.01,2013-11-07 05:38:00,
2013-11-06 23:39:00,31.6,25.6,29.50,NW,313,0.0,0.0,78,0.00,,CLR,0.59,VWS V14.01,2013-11-07 05:39:00,
2013-11-06 23:40:00,31.6,25.6,29.50,NW,313,0.0,0.0,78,0.00,,CLR,0.59,VWS V14.01,2013-11-07 05:40:00,
2013-11-06 23:41:00,31.5,25.4,29.50,NW,313,0.0,0.0,78,0.00,,CLR,0.59,VWS V14.01,2013-11-07 05:41:00,
2013-11-06 23:42:00,31.5,25.4,29.50,NW,313,0.0,0.0,78,0.00,,CLR,0.59,VWS V14.01,2013-11-07 05:42:00,
2013-11-06 23:44:00,31.6,26.2,29.50,NW,313,0.0,0.0,80,0.00,,CLR,0.59,VWS V14.01,2013-11-07 05:44:00,
2013-11-06 23:46:00,31.6,26.2,29.50,NW,313,0.0,0.0,80,0.00,,CLR,0.59,VWS V14.01,2013-11-07 05:46:00,
2013-11-06 23:47:00,31.6,26.2,29.50,NW,313,0.0,0.0,80,0.00,,CLR,0.59,VWS V14.01,2013-11-07 05:47:00,
2013-11-06 23:49:00,31.8,26.4,29.50,NW,313,2.7,2.7,80,0.00,,CLR,0.59,VWS V14.01,2013-11-07 05:49:00,
2013-11-06 23:51:00,32.2,26.7,29.50,NW,313,2.2,3.1,80,0.00,,CLR,0.59,VWS V14.01,2013-11-07 05:51:00,
2013-11-06 23:52:00,32.2,26.7,29.50,NW,313,2.2,2.2,80,0.00,,CLR,0.59,VWS V14.01,2013-11-07 05:52:00,
2013-11-06 23:53:00,32.2,27.3,29.50,NW,313,0.0,2.2,82,0.00,,CLR,0.59,VWS V14.01,2013-11-07 05:53:00,
2013-11-06 23:55:00,32.4,26.9,29.53,NW,313,0.0,0.0,80,0.00,,CLR,0.59,VWS V14.01,2013-11-07 05:55:00,
2013-11-06 23:56:00,32.2,26.7,29.53,NW,313,0.0,0.0,80,0.00,,CLR,0.59,VWS V14.01,2013-11-07 05:56:00,
2013-11-06 23:57:00,32.2,26.7,29.53,NW,313,0.0,0.0,80,0.00,,CLR,0.59,VWS V14.01,2013-11-07 05:57:00,
2013-11-06 23:59:00,32.2,26.7,29.53,NW,313,0.0,0.0,80,0.00,,CLR,0.59,VWS V14.01,2013-11-07 05:59:00,